SV8FES Weather Reports


Display with metric or nautical units.
time (UTC)temp
F
wind
direction
speed
MPH
gust
MPH
rain 1hr
in
rain 24hr
in
rain mn
in
humidity
%
barometer
mb
20260507161604 71 286 1.0 3.0 0.00 0.00 0.00 50 1018.3
20260507161507 72 286 1.0 3.0 0.00 0.00 0.00 50 1018.2
20260507161404 72 286 1.0 3.0 0.00 0.00 0.00 50 1018.3
20260507161302 72 286 1.0 3.0 0.00 0.00 0.00 50 1018.3
20260507161203 72 286 1.0 3.0 0.00 0.00 0.00 50 1018.3
20260507161106 72 286 1.0 3.0 0.00 0.00 0.00 50 1018.3
20260507161001 72 286 1.0 3.0 0.00 0.00 0.00 50 1018.3
20260507160902 72 286 1.0 3.0 0.00 0.00 0.00 50 1018.3
20260507160801 72 286 1.0 3.0 0.00 0.00 0.00 50 1018.4
20260507160701 72 286 1.0 4.0 0.00 0.00 0.00 49 1018.5
20260507160558 72 286 1.0 4.0 0.00 0.00 0.00 49 1018.5
20260507160458 72 286 1.0 4.0 0.00 0.00 0.00 49 1018.4
20260507160356 72 286 2.0 4.0 0.00 0.00 0.00 49 1018.5
20260507160255 72 286 2.0 4.0 0.00 0.00 0.00 49 1018.5
20260507160153 72 286 1.0 4.0 0.00 0.00 0.00 49 1018.4
20260507160052 72 286 2.0 4.0 0.00 0.00 0.00 49 1018.5
20260507155951 72 286 2.0 4.0 0.00 0.00 0.00 49 1018.5
20260507155851 72 285 1.0 4.0 0.00 0.00 0.00 48 1018.4
20260507155750 72 284 1.0 4.0 0.00 0.00 0.00 48 1018.5
20260507155653 72 262 1.0 3.0 0.00 0.00 0.00 48 1018.5
20260507155551 72 262 1.0 3.0 0.00 0.00 0.00 48 1018.5
20260507155502 72 259 1.0 3.0 0.00 0.00 0.00 48 1018.4
20260507155348 72 257 1.0 3.0 0.00 0.00 0.00 48 1018.4
20260507155244 72 252 1.0 3.0 0.00 0.00 0.00 48 1018.4
20260507155146 72 251 1.0 3.0 0.00 0.00 0.00 48 1018.3
20260507155044 73 251 1.0 3.0 0.00 0.00 0.00 48 1018.2
20260507154942 72 251 1.0 3.0 0.00 0.00 0.00 48 1018.2
20260507154843 72 251 1.0 3.0 0.00 0.00 0.00 48 1018.2
20260507154742 72 251 1.0 3.0 0.00 0.00 0.00 48 1018.2
20260507154640 72 251 1.0 3.0 0.00 0.00 0.00 49 1018.1
20260507154541 72 250 1.0 3.0 0.00 0.00 0.00 49 1018.1
20260507154442 72 250 1.0 3.0 0.00 0.00 0.00 48 1018.1
20260507154339 72 250 1.0 3.0 0.00 0.00 0.00 48 1018.1
20260507154238 72 250 1.0 3.0 0.00 0.00 0.00 48 1018.1
20260507154138 72 250 1.0 3.0 0.00 0.00 0.00 48 1018.2
20260507154032 72 250 1.0 3.0 0.00 0.00 0.00 48 1018.2
20260507154016 72 250 1.0 3.0 0.00 0.00 0.00 48 1018.2
20260507153933 72 250 1.0 3.0 0.00 0.00 0.00 48 1018.2
20260507153832 72 250 1.0 3.0 0.00 0.00 0.00 48 1018.3
20260507153730 72 250 1.0 3.0 0.00 0.00 0.00 49 1018.3
20260507153630 72 249 1.0 3.0 0.00 0.00 0.00 48 1018.3
20260507153530 72 249 1.0 3.0 0.00 0.00 0.00 48 1018.3
20260507153439 72 248 2.0 6.0 0.00 0.00 0.00 47 1018.3
20260507153431 72 249 2.0 3.0 0.00 0.00 0.00 48 1018.2
20260507153408 72 248 2.0 6.0 0.00 0.00 0.00 48 1018.3
20260507153331 72 249 2.0 3.0 0.00 0.00 0.00 48 1018.3
20260507153231 72 248 2.0 6.0 0.00 0.00 0.00 47 1018.3
20260507153131 72 248 2.0 6.0 0.00 0.00 0.00 48 1018.3
20260507153030 73 249 2.0 6.0 0.00 0.00 0.00 48 1018.3
20260507152931 73 235 2.0 6.0 0.00 0.00 0.00 47 1018.3
20260507152850 73 224 3.0 6.0 0.00 0.00 0.00 46 1018.4
20260507152835 73 234 2.0 6.0 0.00 0.00 0.00 47 1018.3
20260507152631 73 229 3.0 6.0 0.00 0.00 0.00 47 1018.3
20260507152529 73 229 3.0 6.0 0.00 0.00 0.00 47 1018.3
20260507152430 73 228 3.0 6.0 0.00 0.00 0.00 47 1018.4
20260507152329 73 224 3.0 6.0 0.00 0.00 0.00 46 1018.4
20260507152324 73 266 3.0 5.0 0.00 0.00 0.00 43 1018.5
20260507152231 73 212 2.0 5.0 0.00 0.00 0.00 46 1018.5
20260507152130 73 262 2.0 5.0 0.00 0.00 0.00 45 1018.5
20260507152030 73 263 3.0 5.0 0.00 0.00 0.00 45 1018.4
20260507151930 73 264 3.0 5.0 0.00 0.00 0.00 44 1018.5
20260507151832 73 266 3.0 5.0 0.00 0.00 0.00 43 1018.5
20260507151735 74 278 3.0 5.0 0.00 0.00 0.00 43 1018.4
20260507151627 74 237 3.0 5.0 0.00 0.00 0.00 43 1018.5
20260507151526 74 229 3.0 5.0 0.00 0.00 0.00 43 1018.5
20260507151426 74 205 3.0 5.0 0.00 0.00 0.00 43 1018.4
20260507151326 74 204 3.0 5.0 0.00 0.00 0.00 43 1018.3
20260507151230 74 204 3.0 5.0 0.00 0.00 0.00 44 1018.3
20260507151119 74 222 3.0 5.0 0.00 0.00 0.00 44 1018.4
20260507151020 74 222 3.0 5.0 0.00 0.00 0.00 45 1018.4
20260507150922 74 222 2.0 5.0 0.00 0.00 0.00 45 1018.4
20260507150818 74 234 2.0 5.0 0.00 0.00 0.00 45 1018.5
20260507150725 74 274 3.0 5.0 0.00 0.00 0.00 45 1018.5
20260507150613 74 268 3.0 5.0 0.00 0.00 0.00 45 1018.5
20260507150514 74 214 3.0 5.0 0.00 0.00 0.00 45 1018.4
20260507150412 74 211 3.0 5.0 0.00 0.00 0.00 45 1018.5
20260507150314 74 211 3.0 7.0 0.00 0.00 0.00 44 1018.6
20260507150214 74 211 3.0 7.0 0.00 0.00 0.00 43 1018.5
20260507150109 74 214 3.0 9.0 0.00 0.00 0.00 43 1018.5
20260507150007 74 247 4.0 9.0 0.00 0.00 0.00 43 1018.5
20260507145909 74 245 4.0 9.0 0.00 0.00 0.00 42 1018.5
20260507145808 74 253 4.0 9.0 0.00 0.00 0.00 41 1018.5
20260507145707 74 224 4.0 9.0 0.00 0.00 0.00 40 1018.4
20260507145602 74 220 4.0 9.0 0.00 0.00 0.00 40 1018.5
20260507145504 74 237 4.0 9.0 0.00 0.00 0.00 39 1018.5
20260507145306 74 237 4.0 9.0 0.00 0.00 0.00 38 1018.5
20260507145203 74 223 4.0 9.0 0.00 0.00 0.00 40 1018.5
20260507145103 75 227 4.0 8.0 0.00 0.00 0.00 39 1018.5
20260507145007 75 188 4.0 8.0 0.00 0.00 0.00 39 1018.5
20260507144904 75 268 4.0 8.0 0.00 0.00 0.00 41 1018.4
20260507144804 75 232 4.0 8.0 0.00 0.00 0.00 42 1018.4
20260507144703 75 230 4.0 8.0 0.00 0.00 0.00 43 1018.4
20260507144605 75 268 4.0 8.0 0.00 0.00 0.00 43 1018.3
20260507144504 75 237 4.0 8.0 0.00 0.00 0.00 42 1018.3
20260507144404 75 255 4.0 8.0 0.00 0.00 0.00 41 1018.3
20260507144303 76 207 5.0 8.0 0.00 0.00 0.00 42 1018.3
20260507144203 76 257 5.0 8.0 0.00 0.00 0.00 41 1018.3
20260507144108 75 276 5.0 8.0 0.00 0.00 0.00 41 1018.3
20260507144004 75 280 5.0 8.0 0.00 0.00 0.00 41 1018.3
20260507143902 76 222 5.0 8.0 0.00 0.00 0.00 41 1018.4
20260507143803 76 235 5.0 8.0 0.00 0.00 0.00 41 1018.4
20260507143703 76 303 5.0 8.0 0.00 0.00 0.00 41 1018.3
20260507143605 76 251 5.0 8.0 0.00 0.00 0.00 40 1018.3
20260507143506 76 222 5.0 8.0 0.00 0.00 0.00 41 1018.3
20260507143403 76 223 5.0 8.0 0.00 0.00 0.00 41 1018.2
20260507143304 76 236 4.0 8.0 0.00 0.00 0.00 43 1018.2
20260507143204 76 205 5.0 8.0 0.00 0.00 0.00 41 1018.2
20260507143102 76 197 5.0 9.0 0.00 0.00 0.00 42 1018.1
20260507143005 76 218 5.0 9.0 0.00 0.00 0.00 41 1018.1
20260507142904 75 193 5.0 9.0 0.00 0.00 0.00 41 1018.1
20260507142803 76 266 5.0 9.0 0.00 0.00 0.00 41 1018.1
20260507142707 76 259 5.0 9.0 0.00 0.00 0.00 40 1018.1
20260507142603 76 220 5.0 9.0 0.00 0.00 0.00 40 1018.1
20260507142505 76 209 4.0 9.0 0.00 0.00 0.00 40 1018.2
20260507142404 76 215 4.0 9.0 0.00 0.00 0.00 41 1018.1
20260507142306 76 234 5.0 9.0 0.00 0.00 0.00 42 1018.1
20260507142207 76 232 4.0 9.0 0.00 0.00 0.00 42 1018.1
20260507142103 76 212 4.0 9.0 0.00 0.00 0.00 43 1018.1
20260507142004 76 219 3.0 9.0 0.00 0.00 0.00 43 1018.0
20260507141902 76 230 3.0 7.0 0.00 0.00 0.00 43 1018.0
20260507141802 76 216 3.0 7.0 0.00 0.00 0.00 42 1018.0
20260507141706 76 217 3.0 7.0 0.00 0.00 0.00 42 1018.1
20260507141605 76 249 3.0 7.0 0.00 0.00 0.00 42 1018.1
20260507141504 76 224 4.0 7.0 0.00 0.00 0.00 40 1018.1
20260507141415 76 203 4.0 7.0 0.00 0.00 0.00 40 1018.1
20260507141303 75 212 3.0 7.0 0.00 0.00 0.00 44 1018.0
20260507141207 75 268 3.0 7.0 0.00 0.00 0.00 44 1018.1
20260507141103 75 255 3.0 7.0 0.00 0.00 0.00 44 1018.2
20260507141004 75 254 4.0 7.0 0.00 0.00 0.00 44 1018.2
20260507140903 75 283 4.0 7.0 0.00 0.00 0.00 45 1018.2
20260507140803 75 228 4.0 8.0 0.00 0.00 0.00 45 1018.2
20260507140705 76 223 4.0 8.0 0.00 0.00 0.00 46 1018.3
20260507140605 76 215 4.0 8.0 0.00 0.00 0.00 45 1018.3
20260507140500 75 309 4.0 8.0 0.00 0.00 0.00 44 1018.3
20260507140400 75 226 4.0 8.0 0.00 0.00 0.00 45 1018.3
20260507140301 75 247 5.0 8.0 0.00 0.00 0.00 43 1018.3
20260507140201 75 193 5.0 8.0 0.00 0.00 0.00 42 1018.4
20260507140100 75 195 5.0 8.0 0.00 0.00 0.00 41 1018.4
20260507135957 75 210 5.0 9.0 0.00 0.00 0.00 43 1018.4
20260507135856 75 263 5.0 9.0 0.00 0.00 0.00 45 1018.5
20260507135755 75 237 5.0 9.0 0.00 0.00 0.00 45 1018.5
20260507135656 75 290 5.0 9.0 0.00 0.00 0.00 44 1018.4
20260507135554 75 259 5.0 9.0 0.00 0.00 0.00 43 1018.4
20260507135451 76 259 5.0 9.0 0.00 0.00 0.00 42 1018.4
20260507135349 76 221 5.0 9.0 0.00 0.00 0.00 42 1018.4
20260507135249 76 219 5.0 9.0 0.00 0.00 0.00 44 1018.5
20260507135149 75 218 5.0 9.0 0.00 0.00 0.00 42 1018.4
20260507135049 76 203 5.0 9.0 0.00 0.00 0.00 41 1018.4
20260507134943 75 228 6.0 9.0 0.00 0.00 0.00 41 1018.3
20260507134843 75 217 6.0 9.0 0.00 0.00 0.00 42 1018.3
20260507134742 75 211 6.0 9.0 0.00 0.00 0.00 42 1018.3
20260507134643 75 199 6.0 9.0 0.00 0.00 0.00 40 1018.3
20260507134543 75 191 6.0 9.0 0.00 0.00 0.00 38 1018.4
20260507134437 75 243 6.0 9.0 0.00 0.00 0.00 37 1018.4
20260507134337 76 222 6.0 9.0 0.00 0.00 0.00 36 1018.3
20260507134237 76 234 6.0 9.0 0.00 0.00 0.00 35 1018.5
20260507134137 76 234 6.0 9.0 0.00 0.00 0.00 35 1018.5
20260507134037 76 232 5.0 9.0 0.00 0.00 0.00 34 1018.4
20260507133934 76 224 5.0 9.0 0.00 0.00 0.00 36 1018.4
20260507133834 76 224 5.0 9.0 0.00 0.00 0.00 36 1018.3
20260507133733 76 191 5.0 8.0 0.00 0.00 0.00 36 1018.3
20260507133634 76 219 5.0 11.0 0.00 0.00 0.00 35 1018.4
20260507133534 76 222 5.0 11.0 0.00 0.00 0.00 37 1018.5
20260507133434 76 235 5.0 11.0 0.00 0.00 0.00 39 1018.5
20260507133332 76 255 5.0 11.0 0.00 0.00 0.00 38 1018.5
20260507133232 76 216 5.0 11.0 0.00 0.00 0.00 39 1018.5
20260507133133 76 247 5.0 11.0 0.00 0.00 0.00 40 1018.5
20260507133033 76 253 5.0 11.0 0.00 0.00 0.00 39 1018.5
20260507132931 76 221 5.0 11.0 0.00 0.00 0.00 38 1018.4
20260507132834 76 214 5.0 11.0 0.00 0.00 0.00 37 1018.3
20260507132731 76 219 5.0 11.0 0.00 0.00 0.00 37 1018.3
20260507132631 76 257 5.0 8.0 0.00 0.00 0.00 36 1018.3
20260507132531 76 226 5.0 8.0 0.00 0.00 0.00 34 1018.3
20260507132433 76 219 5.0 8.0 0.00 0.00 0.00 32 1018.3
20260507132331 76 203 5.0 9.0 0.00 0.00 0.00 33 1018.2
20260507132232 76 253 5.0 9.0 0.00 0.00 0.00 35 1018.3
20260507132130 76 214 5.0 9.0 0.00 0.00 0.00 35 1018.3
20260507132030 76 235 5.0 9.0 0.00 0.00 0.00 35 1018.3
20260507131941 76 239 5.0 9.0 0.00 0.00 0.00 36 1018.2
20260507131833 76 247 5.0 9.0 0.00 0.00 0.00 36 1018.2
20260507131725 77 204 5.0 9.0 0.00 0.00 0.00 35 1018.3
20260507131623 76 193 5.0 9.0 0.00 0.00 0.00 37 1018.3
20260507131524 76 208 5.0 9.0 0.00 0.00 0.00 36 1018.3
20260507131427 76 255 5.0 9.0 0.00 0.00 0.00 38 1018.3
20260507131325 76 222 5.0 9.0 0.00 0.00 0.00 38 1018.3
20260507131221 77 220 4.0 9.0 0.00 0.00 0.00 38 1018.3
20260507131119 77 263 5.0 9.0 0.00 0.00 0.00 37 1018.3
20260507131020 78 251 5.0 9.0 0.00 0.00 0.00 36 1018.3
20260507130921 78 228 5.0 9.0 0.00 0.00 0.00 36 1018.2
20260507130819 78 241 5.0 9.0 0.00 0.00 0.00 34 1018.2
20260507130716 77 207 5.0 9.0 0.00 0.00 0.00 34 1018.2
20260507130626 77 216 5.0 9.0 0.00 0.00 0.00 33 1018.3
20260507130511 77 243 5.0 9.0 0.00 0.00 0.00 33 1018.3
20260507130412 77 218 5.0 9.0 0.00 0.00 0.00 34 1018.4
20260507130313 77 218 5.0 9.0 0.00 0.00 0.00 33 1018.5
20260507130207 77 212 5.0 9.0 0.00 0.00 0.00 31 1018.6
20260507130107 77 216 5.0 10.0 0.00 0.00 0.00 32 1018.5
20260507130005 77 239 5.0 10.0 0.00 0.00 0.00 34 1018.6
20260507125905 77 259 5.0 10.0 0.00 0.00 0.00 34 1018.6
20260507125805 77 218 5.0 10.0 0.00 0.00 0.00 35 1018.6
20260507125704 77 222 5.0 10.0 0.00 0.00 0.00 37 1018.7
20260507125604 77 237 5.0 10.0 0.00 0.00 0.00 37 1018.6
20260507125505 77 258 5.0 10.0 0.00 0.00 0.00 37 1018.7
20260507125404 77 230 5.0 10.0 0.00 0.00 0.00 37 1018.8
20260507125306 77 210 5.0 10.0 0.00 0.00 0.00 38 1018.8
20260507125203 77 212 5.0 10.0 0.00 0.00 0.00 38 1018.8
20260507125104 77 216 5.0 10.0 0.00 0.00 0.00 39 1018.8
20260507125004 76 243 6.0 9.0 0.00 0.00 0.00 39 1018.8
20260507124903 76 242 6.0 9.0 0.00 0.00 0.00 40 1018.8
20260507124803 76 222 6.0 11.0 0.00 0.00 0.00 41 1018.7
20260507124703 76 229 5.0 11.0 0.00 0.00 0.00 39 1018.6
20260507124605 76 243 6.0 11.0 0.00 0.00 0.00 40 1018.6
20260507124505 76 233 6.0 11.0 0.00 0.00 0.00 42 1018.6
20260507124403 76 233 6.0 11.0 0.00 0.00 0.00 42 1018.6
20260507124312 76 224 6.0 12.0 0.00 0.00 0.00 42 1018.6
20260507124202 76 222 7.0 12.0 0.00 0.00 0.00 42 1018.7
20260507124104 76 224 6.0 12.0 0.00 0.00 0.00 42 1018.8
20260507124003 77 201 7.0 12.0 0.00 0.00 0.00 42 1018.8
20260507123901 77 220 6.0 12.0 0.00 0.00 0.00 43 1018.7
20260507123801 76 223 7.0 12.0 0.00 0.00 0.00 43 1018.8
20260507123701 76 218 7.0 12.0 0.00 0.00 0.00 43 1018.9
20260507123603 76 201 7.0 12.0 0.00 0.00 0.00 43 1018.8
20260507123454 76 197 7.0 12.0 0.00 0.00 0.00 42 1018.9
20260507123355 76 230 7.0 12.0 0.00 0.00 0.00 44 1018.9
20260507123255 76 214 7.0 12.0 0.00 0.00 0.00 43 1018.8
20260507123154 76 229 7.0 12.0 0.00 0.00 0.00 42 1018.8
20260507123055 76 225 7.0 12.0 0.00 0.00 0.00 42 1018.8
20260507122950 76 220 7.0 12.0 0.00 0.00 0.00 44 1018.8
20260507122850 76 251 7.0 12.0 0.00 0.00 0.00 43 1018.8
20260507122751 77 205 8.0 12.0 0.00 0.00 0.00 43 1018.8
20260507122650 77 207 8.0 12.0 0.00 0.00 0.00 44 1018.8
20260507122549 77 247 8.0 12.0 0.00 0.00 0.00 44 1018.9
20260507122443 77 236 7.0 12.0 0.00 0.00 0.00 44 1018.8
20260507122342 77 212 7.0 12.0 0.00 0.00 0.00 46 1018.8
20260507122300 76 234 8.0 14.0 0.00 0.00 0.00 45 1018.8
20260507122143 76 196 8.0 14.0 0.00 0.00 0.00 44 1018.9
20260507122042 76 201 8.0 14.0 0.00 0.00 0.00 42 1018.9
20260507121937 76 216 8.0 14.0 0.00 0.00 0.00 39 1018.9
20260507121836 76 218 7.0 14.0 0.00 0.00 0.00 39 1018.9
20260507121737 76 235 7.0 14.0 0.00 0.00 0.00 40 1018.9
20260507121637 76 223 7.0 14.0 0.00 0.00 0.00 42 1018.8
20260507121536 76 240 7.0 14.0 0.00 0.00 0.00 41 1018.9
20260507121433 76 267 7.0 14.0 0.00 0.00 0.00 41 1018.8
20260507121332 77 230 7.0 14.0 0.00 0.00 0.00 40 1018.8
20260507121232 77 226 7.0 13.0 0.00 0.00 0.00 42 1018.7
20260507121133 77 187 7.0 13.0 0.00 0.00 0.00 42 1018.8
20260507121031 77 245 7.0 13.0 0.00 0.00 0.00 44 1018.8
20260507120933 77 214 7.0 13.0 0.00 0.00 0.00 43 1018.8
20260507120831 77 230 7.0 13.0 0.00 0.00 0.00 42 1018.8
20260507120732 76 225 8.0 13.0 0.00 0.00 0.00 41 1018.8
20260507120633 76 212 8.0 14.0 0.00 0.00 0.00 40 1018.8
20260507120531 76 229 8.0 14.0 0.00 0.00 0.00 38 1018.8
20260507120436 77 270 8.0 14.0 0.00 0.00 0.00 39 1018.8
20260507120332 77 231 8.0 14.0 0.00 0.00 0.00 40 1018.8
20260507120231 77 223 8.0 14.0 0.00 0.00 0.00 41 1018.8
20260507120133 77 222 8.0 14.0 0.00 0.00 0.00 41 1018.8
20260507120031 77 199 8.0 14.0 0.00 0.00 0.00 40 1018.8
20260507115933 77 197 8.0 14.0 0.00 0.00 0.00 40 1018.8
20260507115831 77 216 8.0 14.0 0.00 0.00 0.00 39 1018.8
20260507115630 77 217 7.0 14.0 0.00 0.00 0.00 37 1018.8
20260507115531 77 205 7.0 14.0 0.00 0.00 0.00 37 1018.7
20260507115430 77 208 8.0 14.0 0.00 0.00 0.00 37 1018.7
20260507115331 77 246 7.0 14.0 0.00 0.00 0.00 37 1018.7
20260507115225 78 257 7.0 14.0 0.00 0.00 0.00 39 1018.7
20260507115142 78 211 7.0 14.0 0.00 0.00 0.00 37 1018.6
20260507115037 78 213 7.0 14.0 0.00 0.00 0.00 36 1018.6
20260507114934 78 218 7.0 14.0 0.00 0.00 0.00 38 1018.6
20260507114828 78 209 7.0 14.0 0.00 0.00 0.00 36 1018.6
20260507114718 78 183 7.0 14.0 0.00 0.00 0.00 35 1018.6
20260507114618 78 212 7.0 12.0 0.00 0.00 0.00 33 1018.5
20260507114521 78 218 7.0 12.0 0.00 0.00 0.00 32 1018.5
20260507114419 78 214 7.0 14.0 0.00 0.00 0.00 36 1018.5
20260507114318 78 245 8.0 14.0 0.00 0.00 0.00 35 1018.5
20260507114211 78 210 8.0 14.0 0.00 0.00 0.00 33 1018.5
20260507114114 78 247 8.0 14.0 0.00 0.00 0.00 33 1018.5
20260507114013 78 224 8.0 14.0 0.00 0.00 0.00 33 1018.5
20260507113911 78 246 8.0 14.0 0.00 0.00 0.00 34 1018.5
20260507113813 78 254 8.0 14.0 0.00 0.00 0.00 33 1018.4
20260507113706 78 220 8.0 14.0 0.00 0.00 0.00 30 1018.4
20260507113605 78 220 8.0 14.0 0.00 0.00 0.00 30 1018.5
20260507113506 78 179 8.0 14.0 0.00 0.00 0.00 28 1018.5
20260507113406 78 228 8.0 12.0 0.00 0.00 0.00 27 1018.5
20260507113305 78 223 7.0 12.0 0.00 0.00 0.00 28 1018.5
20260507113203 78 216 7.0 12.0 0.00 0.00 0.00 28 1018.5
20260507113104 79 225 7.0 12.0 0.00 0.00 0.00 26 1018.5
20260507113004 79 231 7.0 12.0 0.00 0.00 0.00 27 1018.4
20260507112904 79 257 7.0 12.0 0.00 0.00 0.00 26 1018.5
20260507112803 79 217 7.0 12.0 0.00 0.00 0.00 25 1018.4
20260507112716 80 222 7.0 12.0 0.00 0.00 0.00 27 1018.4
20260507112604 80 218 7.0 12.0 0.00 0.00 0.00 28 1018.4
20260507112502 80 220 7.0 12.0 0.00 0.00 0.00 29 1018.4
20260507112403 79 189 6.0 12.0 0.00 0.00 0.00 30 1018.4
20260507112306 79 214 6.0 11.0 0.00 0.00 0.00 29 1018.4
20260507112204 79 213 6.0 11.0 0.00 0.00 0.00 28 1018.4
20260507112104 79 279 6.0 11.0 0.00 0.00 0.00 30 1018.4
20260507112004 79 210 6.0 11.0 0.00 0.00 0.00 33 1018.5
20260507111902 78 210 6.0 11.0 0.00 0.00 0.00 32 1018.4
20260507111803 78 220 6.0 11.0 0.00 0.00 0.00 29 1018.4
20260507111703 78 266 6.0 10.0 0.00 0.00 0.00 31 1018.4
20260507111604 78 211 6.0 10.0 0.00 0.00 0.00 32 1018.4
20260507111503 78 221 6.0 11.0 0.00 0.00 0.00 30 1018.5
20260507111403 78 212 7.0 11.0 0.00 0.00 0.00 27 1018.3
20260507111303 78 268 7.0 11.0 0.00 0.00 0.00 27 1018.5
20260507111202 78 232 7.0 11.0 0.00 0.00 0.00 27 1018.4
20260507111104 78 243 7.0 11.0 0.00 0.00 0.00 27 1018.4
20260507111003 78 239 7.0 12.0 0.00 0.00 0.00 29 1018.3
20260507110903 78 230 8.0 15.0 0.00 0.00 0.00 29 1018.3
20260507110802 78 226 8.0 15.0 0.00 0.00 0.00 29 1018.3
20260507110707 78 205 8.0 15.0 0.00 0.00 0.00 28 1018.3
20260507110603 78 216 8.0 15.0 0.00 0.00 0.00 31 1018.3
20260507110504 78 200 8.0 15.0 0.00 0.00 0.00 30 1018.3
20260507110402 78 216 8.0 15.0 0.00 0.00 0.00 31 1018.3
20260507110304 78 223 8.0 15.0 0.00 0.00 0.00 33 1018.4
20260507110202 78 225 8.0 15.0 0.00 0.00 0.00 33 1018.3
20260507110112 78 187 8.0 15.0 0.00 0.00 0.00 34 1018.3
20260507110010 78 200 8.0 15.0 0.00 0.00 0.00 33 1018.4
20260507105907 78 186 8.0 13.0 0.00 0.00 0.00 36 1018.4
20260507105803 78 239 8.0 13.0 0.00 0.00 0.00 35 1018.4
20260507105703 78 207 8.0 14.0 0.00 0.00 0.00 34 1018.4
20260507105603 78 205 8.0 14.0 0.00 0.00 0.00 32 1018.4
20260507105502 78 222 8.0 14.0 0.00 0.00 0.00 35 1018.5
20260507105404 78 212 8.0 14.0 0.00 0.00 0.00 36 1018.5
20260507105306 78 227 7.0 14.0 0.00 0.00 0.00 35 1018.5
20260507105203 78 218 7.0 14.0 0.00 0.00 0.00 31 1018.5
20260507105103 78 260 7.0 14.0 0.00 0.00 0.00 31 1018.5
20260507105002 78 230 7.0 14.0 0.00 0.00 0.00 33 1018.5
20260507104902 78 226 7.0 14.0 0.00 0.00 0.00 34 1018.4
20260507104802 78 213 7.0 14.0 0.00 0.00 0.00 35 1018.5
20260507104703 78 221 6.0 13.0 0.00 0.00 0.00 36 1018.5
20260507104604 78 233 6.0 13.0 0.00 0.00 0.00 35 1018.3
20260507104504 78 228 6.0 11.0 0.00 0.00 0.00 36 1018.4
20260507104403 78 278 6.0 11.0 0.00 0.00 0.00 36 1018.3
20260507104303 78 264 6.0 10.0 0.00 0.00 0.00 35 1018.4
20260507104205 78 212 6.0 10.0 0.00 0.00 0.00 36 1018.3
20260507104100 78 232 6.0 10.0 0.00 0.00 0.00 33 1018.3
20260507104001 78 231 6.0 10.0 0.00 0.00 0.00 33 1018.3
20260507103900 79 294 6.0 10.0 0.00 0.00 0.00 34 1018.3
20260507103759 79 255 6.0 10.0 0.00 0.00 0.00 33 1018.3
20260507103703 79 238 6.0 10.0 0.00 0.00 0.00 37 1018.2
20260507103554 79 244 6.0 10.0 0.00 0.00 0.00 37 1018.3
20260507103456 78 226 6.0 10.0 0.00 0.00 0.00 34 1018.2
20260507103355 78 189 5.0 10.0 0.00 0.00 0.00 34 1018.2
20260507103253 78 164 6.0 10.0 0.00 0.00 0.00 34 1018.2
20260507103152 78 210 6.0 10.0 0.00 0.00 0.00 34 1018.2
20260507103049 78 202 6.0 10.0 0.00 0.00 0.00 33 1018.1
20260507102947 78 203 6.0 11.0 0.00 0.00 0.00 34 1018.2
20260507102846 78 246 6.0 11.0 0.00 0.00 0.00 34 1018.2
20260507102746 78 181 6.0 11.0 0.00 0.00 0.00 35 1018.1
20260507102647 78 197 6.0 11.0 0.00 0.00 0.00 35 1018.2
20260507102540 78 183 6.0 13.0 0.00 0.00 0.00 35 1018.1
20260507102439 77 266 6.0 13.0 0.00 0.00 0.00 34 1018.1
20260507102341 77 216 6.0 13.0 0.00 0.00 0.00 35 1018.2
20260507102240 77 200 6.0 13.0 0.00 0.00 0.00 35 1018.2
20260507102140 77 219 6.0 13.0 0.00 0.00 0.00 36 1018.3
20260507102035 77 212 6.0 13.0 0.00 0.00 0.00 34 1018.2
20260507101934 77 253 6.0 13.0 0.00 0.00 0.00 36 1018.3
20260507101833 77 214 6.0 13.0 0.00 0.00 0.00 36 1018.3
20260507101734 77 205 6.0 13.0 0.00 0.00 0.00 34 1018.3
20260507101633 77 195 6.0 13.0 0.00 0.00 0.00 34 1018.3
20260507101534 77 185 6.0 11.0 0.00 0.00 0.00 36 1018.4
20260507101433 77 224 6.0 11.0 0.00 0.00 0.00 36 1018.4
20260507101335 77 181 7.0 11.0 0.00 0.00 0.00 34 1018.4
20260507101235 77 205 7.0 11.0 0.00 0.00 0.00 35 1018.5
20260507101132 76 207 7.0 11.0 0.00 0.00 0.00 36 1018.4
20260507101032 76 208 6.0 11.0 0.00 0.00 0.00 35 1018.4
20260507100933 76 207 6.0 11.0 0.00 0.00 0.00 38 1018.5
20260507100831 76 203 6.0 11.0 0.00 0.00 0.00 41 1018.5
20260507100732 76 224 6.0 11.0 0.00 0.00 0.00 39 1018.6
20260507100632 76 197 6.0 14.0 0.00 0.00 0.00 37 1018.6
20260507100532 77 237 7.0 14.0 0.00 0.00 0.00 35 1018.6
20260507100433 77 236 7.0 14.0 0.00 0.00 0.00 36 1018.6
20260507100331 77 196 7.0 14.0 0.00 0.00 0.00 36 1018.6
20260507100233 77 208 7.0 14.0 0.00 0.00 0.00 37 1018.6
20260507100131 77 233 6.0 14.0 0.00 0.00 0.00 34 1018.6
20260507100032 77 132 6.0 14.0 0.00 0.00 0.00 33 1018.6
20260507095933 77 216 7.0 14.0 0.00 0.00 0.00 35 1018.6
20260507095831 77 216 7.0 14.0 0.00 0.00 0.00 35 1018.6
20260507095732 77 172 7.0 14.0 0.00 0.00 0.00 32 1018.7
20260507095632 77 205 7.0 13.0 0.00 0.00 0.00 39 1018.7
20260507095534 77 215 7.0 12.0 0.00 0.00 0.00 40 1018.7
20260507095433 77 218 7.0 12.0 0.00 0.00 0.00 37 1018.7
20260507095332 77 210 7.0 12.0 0.00 0.00 0.00 38 1018.7
20260507095232 77 222 7.0 12.0 0.00 0.00 0.00 38 1018.7
20260507095131 76 212 7.0 12.0 0.00 0.00 0.00 39 1018.7
20260507095031 76 240 7.0 12.0 0.00 0.00 0.00 35 1018.8
20260507094933 76 191 7.0 12.0 0.00 0.00 0.00 35 1018.9
20260507094832 76 204 7.0 12.0 0.00 0.00 0.00 36 1018.9
20260507094732 76 221 7.0 12.0 0.00 0.00 0.00 39 1018.9
20260507094633 76 210 7.0 12.0 0.00 0.00 0.00 40 1018.8
20260507094529 76 222 7.0 12.0 0.00 0.00 0.00 39 1018.8
20260507094430 77 207 7.0 12.0 0.00 0.00 0.00 40 1018.8
20260507094330 76 166 7.0 12.0 0.00 0.00 0.00 40 1018.8
20260507094229 76 254 7.0 12.0 0.00 0.00 0.00 38 1018.8
20260507094131 76 222 7.0 12.0 0.00 0.00 0.00 37 1018.8
20260507094029 76 196 7.0 12.0 0.00 0.00 0.00 37 1018.9
20260507093929 76 220 7.0 13.0 0.00 0.00 0.00 38 1018.9
20260507093830 76 193 7.0 13.0 0.00 0.00 0.00 38 1018.9
20260507093732 76 255 7.0 13.0 0.00 0.00 0.00 40 1018.9
20260507093627 76 214 7.0 13.0 0.00 0.00 0.00 41 1018.8
20260507093527 76 221 7.0 13.0 0.00 0.00 0.00 41 1018.8
20260507093428 76 255 7.0 13.0 0.00 0.00 0.00 40 1018.8
20260507093327 76 241 7.0 13.0 0.00 0.00 0.00 42 1018.7
20260507093226 76 212 8.0 13.0 0.00 0.00 0.00 40 1018.8
20260507093125 75 187 8.0 16.0 0.00 0.00 0.00 40 1018.8
20260507093027 75 186 8.0 16.0 0.00 0.00 0.00 43 1018.7
20260507092921 75 223 8.0 16.0 0.00 0.00 0.00 43 1018.8
20260507092823 75 187 8.0 16.0 0.00 0.00 0.00 46 1018.8
20260507092724 75 222 8.0 16.0 0.00 0.00 0.00 47 1018.8
20260507092621 75 206 8.0 16.0 0.00 0.00 0.00 45 1018.8
20260507092522 74 183 8.0 16.0 0.00 0.00 0.00 45 1018.8
20260507092421 74 201 8.0 16.0 0.00 0.00 0.00 48 1018.9
20260507092322 74 202 8.0 16.0 0.00 0.00 0.00 49 1018.9
20260507092222 74 186 7.0 16.0 0.00 0.00 0.00 50 1018.9
20260507092121 74 189 7.0 13.0 0.00 0.00 0.00 51 1018.9
20260507092022 74 204 7.0 12.0 0.00 0.00 0.00 55 1018.9
20260507091921 74 222 7.0 12.0 0.00 0.00 0.00 56 1018.9
20260507091824 74 190 7.0 13.0 0.00 0.00 0.00 55 1018.9
20260507091721 74 260 7.0 13.0 0.00 0.00 0.00 55 1019.0
20260507091622 74 220 7.0 13.0 0.00 0.00 0.00 56 1019.0
20260507091521 74 285 7.0 13.0 0.00 0.00 0.00 57 1019.0
20260507091422 74 222 7.0 13.0 0.00 0.00 0.00 58 1019.1
20260507091322 74 187 7.0 16.0 0.00 0.00 0.00 58 1019.1
20260507091221 73 181 7.0 16.0 0.00 0.00 0.00 57 1019.2
20260507091123 73 228 8.0 16.0 0.00 0.00 0.00 58 1019.1
20260507091017 73 228 8.0 16.0 0.00 0.00 0.00 58 1019.1
20260507090917 73 221 8.0 16.0 0.00 0.00 0.00 59 1019.2
20260507090819 73 237 7.0 16.0 0.00 0.00 0.00 60 1019.1
20260507090718 73 269 7.0 16.0 0.00 0.00 0.00 59 1019.1
20260507090617 73 204 8.0 16.0 0.00 0.00 0.00 59 1019.1
20260507090518 74 251 8.0 16.0 0.00 0.00 0.00 58 1019.1
20260507090418 74 240 8.0 16.0 0.00 0.00 0.00 58 1019.0
20260507090317 74 236 7.0 15.0 0.00 0.00 0.00 59 1019.1
20260507090218 74 201 7.0 15.0 0.00 0.00 0.00 58 1019.0
20260507090117 74 234 7.0 14.0 0.00 0.00 0.00 59 1019.0
20260507090019 74 269 7.0 13.0 0.00 0.00 0.00 58 1018.9
20260507085918 75 212 7.0 15.0 0.00 0.00 0.00 56 1018.9
20260507085819 75 218 7.0 15.0 0.00 0.00 0.00 56 1019.0
20260507085717 75 245 7.0 15.0 0.00 0.00 0.00 55 1019.0
20260507085618 75 214 7.0 15.0 0.00 0.00 0.00 55 1019.0
20260507085518 75 229 8.0 15.0 0.00 0.00 0.00 53 1019.0
20260507085417 75 211 8.0 15.0 0.00 0.00 0.00 53 1019.0
20260507085317 75 235 8.0 15.0 0.00 0.00 0.00 49 1019.0
20260507085219 75 262 9.0 15.0 0.00 0.00 0.00 46 1019.0
20260507085111 75 227 9.0 15.0 0.00 0.00 0.00 46 1018.9
20260507085012 75 242 9.0 15.0 0.00 0.00 0.00 48 1018.9
20260507084912 75 237 9.0 15.0 0.00 0.00 0.00 49 1018.9
20260507084811 75 260 9.0 15.0 0.00 0.00 0.00 46 1018.9
20260507084712 75 238 9.0 15.0 0.00 0.00 0.00 45 1018.8
20260507084613 75 224 9.0 15.0 0.00 0.00 0.00 42 1018.8
20260507084511 76 225 9.0 15.0 0.00 0.00 0.00 41 1018.8
20260507084411 76 220 9.0 15.0 0.00 0.00 0.00 43 1018.7
20260507084313 76 222 9.0 15.0 0.00 0.00 0.00 43 1018.8
20260507084211 77 229 9.0 15.0 0.00 0.00 0.00 40 1018.7
20260507084112 76 199 9.0 15.0 0.00 0.00 0.00 40 1018.7
20260507084013 76 210 9.0 15.0 0.00 0.00 0.00 39 1018.8
20260507083908 76 230 9.0 14.0 0.00 0.00 0.00 36 1018.7
20260507083806 76 212 9.0 14.0 0.00 0.00 0.00 31 1018.8
20260507083708 76 218 9.0 14.0 0.00 0.00 0.00 31 1018.8
20260507083608 76 228 8.0 14.0 0.00 0.00 0.00 32 1018.7
20260507083507 76 239 9.0 14.0 0.00 0.00 0.00 32 1018.7
20260507083408 76 253 9.0 14.0 0.00 0.00 0.00 31 1018.7
20260507083308 76 224 8.0 14.0 0.00 0.00 0.00 31 1018.7
20260507083208 76 221 8.0 14.0 0.00 0.00 0.00 30 1018.6
20260507083109 76 199 8.0 15.0 0.00 0.00 0.00 30 1018.6
20260507083007 76 224 8.0 15.0 0.00 0.00 0.00 29 1018.6
20260507082907 76 219 8.0 15.0 0.00 0.00 0.00 30 1018.5
20260507082808 77 213 8.0 15.0 0.00 0.00 0.00 30 1018.5
20260507082707 77 226 8.0 15.0 0.00 0.00 0.00 30 1018.5
20260507082607 77 255 8.0 15.0 0.00 0.00 0.00 30 1018.4
20260507082507 77 227 7.0 15.0 0.00 0.00 0.00 31 1018.5
20260507082410 77 200 7.0 15.0 0.00 0.00 0.00 30 1018.5
20260507082309 77 235 7.0 15.0 0.00 0.00 0.00 31 1018.4
20260507082207 77 231 7.0 15.0 0.00 0.00 0.00 31 1018.4
20260507082108 77 201 7.0 14.0 0.00 0.00 0.00 32 1018.4
20260507082004 77 223 6.0 12.0 0.00 0.00 0.00 31 1018.3
20260507081903 77 216 6.0 11.0 0.00 0.00 0.00 33 1018.3
20260507081806 77 222 6.0 11.0 0.00 0.00 0.00 32 1018.3
20260507081703 77 230 6.0 11.0 0.00 0.00 0.00 31 1018.3
20260507081604 77 271 6.0 11.0 0.00 0.00 0.00 30 1018.3
20260507081505 77 247 6.0 11.0 0.00 0.00 0.00 30 1018.3
20260507081403 77 264 6.0 11.0 0.00 0.00 0.00 31 1018.3
20260507081303 77 213 6.0 11.0 0.00 0.00 0.00 32 1018.3
20260507081204 77 234 6.0 11.0 0.00 0.00 0.00 31 1018.3
20260507081103 77 221 6.0 11.0 0.00 0.00 0.00 31 1018.2
20260507081003 77 212 5.0 10.0 0.00 0.00 0.00 32 1018.2
20260507080903 77 222 5.0 10.0 0.00 0.00 0.00 32 1018.3
20260507080805 77 289 5.0 10.0 0.00 0.00 0.00 33 1018.3
20260507080704 77 255 5.0 10.0 0.00 0.00 0.00 32 1018.2
20260507080603 76 220 5.0 10.0 0.00 0.00 0.00 32 1018.3
20260507080503 76 232 5.0 10.0 0.00 0.00 0.00 32 1018.1
20260507080403 76 230 5.0 9.0 0.00 0.00 0.00 32 1018.3
20260507080304 76 218 5.0 8.0 0.00 0.00 0.00 33 1018.3
20260507080204 76 193 5.0 8.0 0.00 0.00 0.00 33 1018.3
20260507080103 76 234 5.0 8.0 0.00 0.00 0.00 34 1018.3
20260507080004 76 248 5.0 8.0 0.00 0.00 0.00 34 1018.3
20260507075905 76 273 4.0 8.0 0.00 0.00 0.00 35 1018.3
20260507075805 76 258 4.0 8.0 0.00 0.00 0.00 34 1018.3
20260507075704 76 247 4.0 8.0 0.00 0.00 0.00 34 1018.2
20260507075605 75 232 4.0 8.0 0.00 0.00 0.00 34 1018.3
20260507075504 75 214 4.0 8.0 0.00 0.00 0.00 35 1018.3
20260507075405 75 212 4.0 8.0 0.00 0.00 0.00 34 1018.3
20260507075306 75 249 4.0 8.0 0.00 0.00 0.00 34 1018.3
20260507075203 75 225 3.0 8.0 0.00 0.00 0.00 35 1018.3
20260507075105 75 208 3.0 8.0 0.00 0.00 0.00 35 1018.3
20260507075004 75 228 3.0 8.0 0.00 0.00 0.00 36 1018.3
20260507074902 75 279 3.0 8.0 0.00 0.00 0.00 37 1018.3
20260507074805 75 280 3.0 8.0 0.00 0.00 0.00 38 1018.3
20260507074704 75 271 3.0 7.0 0.00 0.00 0.00 39 1018.4
20260507074602 75 224 3.0 7.0 0.00 0.00 0.00 40 1018.3
20260507074503 75 268 3.0 7.0 0.00 0.00 0.00 41 1018.3
20260507074403 75 284 3.0 7.0 0.00 0.00 0.00 44 1018.3
20260507074304 75 233 3.0 7.0 0.00 0.00 0.00 44 1018.3
20260507074204 75 253 3.0 7.0 0.00 0.00 0.00 44 1018.3
20260507074103 75 255 3.0 7.0 0.00 0.00 0.00 44 1018.3
20260507074003 75 237 3.0 6.0 0.00 0.00 0.00 45 1018.3
20260507073908 75 312 3.0 6.0 0.00 0.00 0.00 45 1018.3
20260507073805 75 230 3.0 6.0 0.00 0.00 0.00 44 1018.3
20260507073703 75 254 3.0 7.0 0.00 0.00 0.00 44 1018.2
20260507073603 75 232 3.0 7.0 0.00 0.00 0.00 44 1018.2
20260507073503 74 241 3.0 7.0 0.00 0.00 0.00 44 1018.3
20260507073408 74 284 3.0 7.0 0.00 0.00 0.00 44 1018.2
20260507073302 74 270 3.0 7.0 0.00 0.00 0.00 44 1018.2
20260507073202 74 280 3.0 7.0 0.00 0.00 0.00 44 1018.3
20260507073102 74 205 3.0 7.0 0.00 0.00 0.00 45 1018.2
20260507073005 74 214 2.0 7.0 0.00 0.00 0.00 46 1018.2
20260507072905 74 219 2.0 7.0 0.00 0.00 0.00 47 1018.2
20260507072806 74 224 2.0 7.0 0.00 0.00 0.00 48 1018.2
20260507072706 74 276 2.0 6.0 0.00 0.00 0.00 52 1018.2
20260507072604 74 297 2.0 7.0 0.00 0.00 0.00 52 1018.2
20260507072504 74 300 2.0 7.0 0.00 0.00 0.00 52 1018.2
20260507072403 74 291 2.0 7.0 0.00 0.00 0.00 52 1018.1
20260507072306 74 276 2.0 7.0 0.00 0.00 0.00 52 1018.1
20260507072202 73 276 2.0 7.0 0.00 0.00 0.00 52 1018.1
20260507072102 73 301 2.0 7.0 0.00 0.00 0.00 52 1018.2
20260507072003 73 301 3.0 7.0 0.00 0.00 0.00 52 1018.2
20260507071902 73 301 3.0 7.0 0.00 0.00 0.00 52 1018.1
20260507071807 73 302 3.0 7.0 0.00 0.00 0.00 52 1018.2
20260507071702 73 243 2.0 7.0 0.00 0.00 0.00 52 1018.2
20260507071603 73 223 2.0 6.0 0.00 0.00 0.00 51 1018.1
20260507071504 73 271 2.0 6.0 0.00 0.00 0.00 51 1018.1
20260507071403 73 282 2.0 6.0 0.00 0.00 0.00 50 1018.2
20260507071304 73 285 2.0 6.0 0.00 0.00 0.00 50 1018.2
20260507071202 73 289 2.0 4.0 0.00 0.00 0.00 50 1018.1
20260507071056 73 241 2.0 7.0 0.00 0.00 0.00 50 1018.2
20260507070955 73 241 2.0 7.0 0.00 0.00 0.00 50 1018.1
20260507070855 73 247 2.0 7.0 0.00 0.00 0.00 50 1018.2
20260507070756 73 256 2.0 7.0 0.00 0.00 0.00 50 1018.2
20260507070656 72 256 2.0 7.0 0.00 0.00 0.00 51 1018.1
20260507070549 72 272 3.0 7.0 0.00 0.00 0.00 50 1018.1
20260507070449 72 278 3.0 7.0 0.00 0.00 0.00 49 1018.0
20260507070351 73 278 3.0 7.0 0.00 0.00 0.00 50 1018.0
20260507070250 73 264 3.0 7.0 0.00 0.00 0.00 50 1018.1
20260507070149 73 289 3.0 6.0 0.00 0.00 0.00 50 1018.1
20260507070046 73 305 3.0 7.0 0.00 0.00 0.00 50 1018.1
20260507065943 73 304 3.0 7.0 0.00 0.00 0.00 50 1018.0
20260507065849 73 251 3.0 7.0 0.00 0.00 0.00 50 1018.0
20260507065743 72 252 3.0 8.0 0.00 0.00 0.00 50 1018.0
20260507065645 72 252 4.0 8.0 0.00 0.00 0.00 50 1018.0
20260507065542 72 244 3.0 8.0 0.00 0.00 0.00 49 1018.0
20260507065441 72 273 3.0 8.0 0.00 0.00 0.00 49 1018.0
20260507065346 72 259 3.0 8.0 0.00 0.00 0.00 48 1017.9
20260507065242 73 287 3.0 8.0 0.00 0.00 0.00 48 1017.9
20260507065141 73 274 3.0 8.0 0.00 0.00 0.00 48 1017.9
20260507065043 73 282 3.0 8.0 0.00 0.00 0.00 48 1017.9
20260507064941 73 342 3.0 8.0 0.00 0.00 0.00 48 1017.9
20260507064845 73 318 3.0 8.0 0.00 0.00 0.00 48 1017.9
20260507064743 73 321 3.0 6.0 0.00 0.00 0.00 49 1017.9
20260507064640 73 291 3.0 6.0 0.00 0.00 0.00 48 1017.9
20260507064541 73 329 3.0 7.0 0.00 0.00 0.00 48 1017.8
20260507064437 73 317 3.0 7.0 0.00 0.00 0.00 48 1017.9
20260507064343 73 312 3.0 7.0 0.00 0.00 0.00 48 1017.9
20260507064235 73 309 4.0 8.0 0.00 0.00 0.00 49 1017.9
20260507064135 73 285 4.0 8.0 0.00 0.00 0.00 49 1017.9
20260507064035 73 283 3.0 8.0 0.00 0.00 0.00 49 1017.9
20260507063935 73 294 3.0 8.0 0.00 0.00 0.00 49 1017.9
20260507063839 73 278 3.0 8.0 0.00 0.00 0.00 49 1017.9
20260507063734 73 291 3.0 8.0 0.00 0.00 0.00 48 1017.9
20260507063634 74 281 3.0 8.0 0.00 0.00 0.00 46 1017.9
20260507063533 74 278 3.0 8.0 0.00 0.00 0.00 45 1017.8
20260507063434 74 293 3.0 8.0 0.00 0.00 0.00 45 1017.8
20260507063332 74 272 2.0 8.0 0.00 0.00 0.00 43 1017.8
20260507063230 74 282 2.0 4.0 0.00 0.00 0.00 41 1017.7
20260507063133 74 281 2.0 4.0 0.00 0.00 0.00 41 1017.8
20260507063031 74 282 2.0 4.0 0.00 0.00 0.00 41 1017.7
20260507062933 74 282 2.0 4.0 0.00 0.00 0.00 42 1017.7
20260507062840 75 287 2.0 4.0 0.00 0.00 0.00 42 1017.7
20260507062731 75 269 2.0 4.0 0.00 0.00 0.00 42 1017.7
20260507062632 75 267 2.0 4.0 0.00 0.00 0.00 42 1017.7
20260507062533 75 266 2.0 4.0 0.00 0.00 0.00 42 1017.7
20260507062432 76 245 1.0 4.0 0.00 0.00 0.00 41 1017.6
20260507062335 76 244 1.0 4.0 0.00 0.00 0.00 41 1017.7
20260507062232 76 276 1.0 4.0 0.00 0.00 0.00 39 1017.7
20260507062132 76 199 1.0 3.0 0.00 0.00 0.00 39 1017.6
20260507062030 76 199 1.0 3.0 0.00 0.00 0.00 39 1017.6
20260507061933 76 199 1.0 3.0 0.00 0.00 0.00 39 1017.6
20260507061832 76 199 1.0 3.0 0.00 0.00 0.00 38 1017.6
20260507061733 75 113 1.0 3.0 0.00 0.00 0.00 37 1017.6
20260507061630 75 105 1.0 3.0 0.00 0.00 0.00 37 1017.6
20260507061529 75 105 1.0 3.0 0.00 0.00 0.00 37 1017.7
20260507061430 75 105 1.0 3.0 0.00 0.00 0.00 37 1017.7
20260507061329 75 105 1.0 3.0 0.00 0.00 0.00 37 1017.7
20260507061227 74 105 1.0 3.0 0.00 0.00 0.00 36 1017.7
20260507061124 74 105 1.0 3.0 0.00 0.00 0.00 37 1017.7
20260507061024 74 103 1.0 3.0 0.00 0.00 0.00 37 1017.8
20260507060923 74 103 1.0 3.0 0.00 0.00 0.00 37 1017.7
20260507060827 74 102 1.0 3.0 0.00 0.00 0.00 38 1017.7
20260507060720 74 102 1.0 3.0 0.00 0.00 0.00 38 1017.7
20260507060616 74 102 1.0 3.0 0.00 0.00 0.00 38 1017.6
20260507060513 73 102 1.0 3.0 0.00 0.00 0.00 38 1017.6
20260507060413 73 102 1.0 3.0 0.00 0.00 0.00 39 1017.7
20260507060313 73 102 1.0 3.0 0.00 0.00 0.00 40 1017.7
20260507060216 73 97 1.0 3.0 0.00 0.00 0.00 41 1017.7
20260507060113 73 98 0.0 3.0 0.00 0.00 0.00 42 1017.7
20260507060010 73 98 1.0 3.0 0.00 0.00 0.00 42 1017.8
20260507055913 72 98 1.0 3.0 0.00 0.00 0.00 42 1017.7
20260507055810 72 98 1.0 3.0 0.00 0.00 0.00 41 1017.8
20260507055708 72 97 1.0 3.0 0.00 0.00 0.00 41 1017.7
20260507055605 72 95 1.0 3.0 0.00 0.00 0.00 41 1017.7
20260507055505 72 95 1.0 3.0 0.00 0.00 0.00 42 1017.7
20260507055404 71 95 1.0 3.0 0.00 0.00 0.00 42 1017.7
20260507055306 71 95 1.0 4.0 0.00 0.00 0.00 42 1017.7
20260507055203 71 93 2.0 5.0 0.00 0.00 0.00 42 1017.8
20260507055103 71 94 2.0 5.0 0.00 0.00 0.00 41 1017.7
20260507055003 71 93 2.0 5.0 0.00 0.00 0.00 42 1017.7
20260507054904 71 92 2.0 5.0 0.00 0.00 0.00 43 1017.7
20260507054807 70 89 2.0 6.0 0.00 0.00 0.00 44 1017.7
20260507054703 70 89 2.0 6.0 0.00 0.00 0.00 47 1017.7
20260507054602 70 83 2.0 6.0 0.00 0.00 0.00 46 1017.7
20260507054504 70 83 2.0 6.0 0.00 0.00 0.00 46 1017.7
20260507054403 70 83 2.0 6.0 0.00 0.00 0.00 46 1017.8
20260507054304 70 83 2.0 6.0 0.00 0.00 0.00 46 1017.7
20260507054203 69 85 2.0 6.0 0.00 0.00 0.00 47 1017.7
20260507054103 69 85 2.0 6.0 0.00 0.00 0.00 48 1017.7
20260507054004 69 85 2.0 6.0 0.00 0.00 0.00 48 1017.8
20260507053904 69 85 2.0 6.0 0.00 0.00 0.00 48 1017.8
20260507053806 69 85 3.0 6.0 0.00 0.00 0.00 49 1017.8
20260507053704 69 79 3.0 6.0 0.00 0.00 0.00 49 1017.7
20260507053604 69 79 3.0 7.0 0.00 0.00 0.00 50 1017.7
20260507053503 69 79 3.0 7.0 0.00 0.00 0.00 51 1017.8
20260507053403 68 79 3.0 7.0 0.00 0.00 0.00 50 1017.8
20260507053302 68 79 4.0 7.0 0.00 0.00 0.00 50 1017.7
20260507053204 68 81 4.0 7.0 0.00 0.00 0.00 51 1017.8
20260507053102 68 86 4.0 7.0 0.00 0.00 0.00 51 1017.7
20260507053005 68 85 4.0 8.0 0.00 0.00 0.00 51 1017.8
20260507052902 68 81 5.0 8.0 0.00 0.00 0.00 52 1017.8
20260507052805 67 83 5.0 8.0 0.00 0.00 0.00 52 1017.8
20260507052702 67 76 5.0 8.0 0.00 0.00 0.00 52 1017.8
20260507052602 67 72 5.0 8.0 0.00 0.00 0.00 53 1017.8
20260507052502 67 85 5.0 8.0 0.00 0.00 0.00 53 1017.8
20260507052404 67 77 6.0 8.0 0.00 0.00 0.00 54 1017.8
20260507052308 67 77 5.0 8.0 0.00 0.00 0.00 54 1017.9
20260507052204 67 72 5.0 8.0 0.00 0.00 0.00 54 1017.8
20260507052104 67 72 5.0 8.0 0.00 0.00 0.00 55 1017.8
20260507052004 66 83 5.0 7.0 0.00 0.00 0.00 55 1017.8
20260507051902 66 67 5.0 7.0 0.00 0.00 0.00 56 1017.8
20260507051806 66 70 4.0 7.0 0.00 0.00 0.00 56 1017.8
20260507051702 66 81 4.0 7.0 0.00 0.00 0.00 57 1017.8
20260507051603 66 79 4.0 7.0 0.00 0.00 0.00 57 1017.8
20260507051502 66 76 4.0 7.0 0.00 0.00 0.00 58 1017.8
20260507051404 65 76 4.0 6.0 0.00 0.00 0.00 58 1017.8
20260507051305 65 76 4.0 6.0 0.00 0.00 0.00 58 1017.8
20260507051204 65 77 4.0 7.0 0.00 0.00 0.00 58 1017.8
20260507051104 65 79 4.0 7.0 0.00 0.00 0.00 58 1017.8
20260507051004 65 76 4.0 7.0 0.00 0.00 0.00 59 1017.8
20260507050902 65 70 4.0 7.0 0.00 0.00 0.00 59 1017.8
20260507050807 65 75 4.0 7.0 0.00 0.00 0.00 59 1017.8
20260507050702 64 76 4.0 7.0 0.00 0.00 0.00 59 1017.7
20260507050604 64 76 4.0 7.0 0.00 0.00 0.00 60 1017.8
20260507050506 64 77 4.0 7.0 0.00 0.00 0.00 59 1017.8
20260507050405 64 77 4.0 7.0 0.00 0.00 0.00 60 1017.8
20260507050303 64 72 3.0 7.0 0.00 0.00 0.00 60 1017.9
20260507050203 64 79 3.0 7.0 0.00 0.00 0.00 60 1017.8
20260507050104 64 73 3.0 7.0 0.00 0.00 0.00 60 1017.9
20260507050004 64 78 3.0 7.0 0.00 0.00 0.00 60 1017.9
20260507045903 64 64 4.0 7.0 0.00 0.00 0.00 60 1017.9
20260507045805 64 64 4.0 8.0 0.00 0.00 0.00 60 1017.9
20260507045704 63 63 4.0 8.0 0.00 0.00 0.00 61 1017.9
20260507045604 63 64 5.0 8.0 0.00 0.00 0.00 61 1017.9
20260507045503 63 74 5.0 8.0 0.00 0.00 0.00 61 1017.9
20260507045404 63 76 5.0 8.0 0.00 0.00 0.00 61 1017.9
20260507045306 63 75 5.0 8.0 0.00 0.00 0.00 61 1017.9
20260507045203 63 72 5.0 8.0 0.00 0.00 0.00 62 1017.8
20260507045104 63 72 5.0 8.0 0.00 0.00 0.00 62 1017.8
20260507045002 63 67 5.0 8.0 0.00 0.00 0.00 62 1017.8
20260507044903 63 79 5.0 8.0 0.00 0.00 0.00 62 1017.8
20260507044806 63 78 4.0 8.0 0.00 0.00 0.00 63 1017.8
20260507044705 63 76 4.0 8.0 0.00 0.00 0.00 63 1017.7
20260507044603 63 73 4.0 7.0 0.00 0.00 0.00 63 1017.8
20260507044503 63 80 4.0 7.0 0.00 0.00 0.00 63 1017.8
20260507044403 63 81 4.0 7.0 0.00 0.00 0.00 63 1017.8
20260507044302 63 76 4.0 7.0 0.00 0.00 0.00 63 1017.7
20260507044203 63 80 4.0 7.0 0.00 0.00 0.00 63 1017.7
20260507044102 63 78 4.0 7.0 0.00 0.00 0.00 63 1017.7
20260507044004 63 79 4.0 7.0 0.00 0.00 0.00 63 1017.7
20260507043904 63 76 4.0 8.0 0.00 0.00 0.00 63 1017.7
20260507043806 63 87 5.0 8.0 0.00 0.00 0.00 63 1017.7
20260507043702 63 79 5.0 8.0 0.00 0.00 0.00 63 1017.7
20260507043603 63 77 4.0 8.0 0.00 0.00 0.00 63 1017.7
20260507043503 63 79 5.0 8.0 0.00 0.00 0.00 63 1017.7
20260507043403 63 81 5.0 8.0 0.00 0.00 0.00 63 1017.7
20260507043302 63 81 5.0 8.0 0.00 0.00 0.00 63 1017.7
20260507043207 63 76 5.0 8.0 0.00 0.00 0.00 63 1017.7
20260507043104 63 87 5.0 8.0 0.00 0.00 0.00 63 1017.7
20260507043006 63 77 5.0 8.0 0.00 0.00 0.00 63 1017.7
20260507042904 63 85 5.0 8.0 0.00 0.00 0.00 63 1017.7
20260507042807 63 83 5.0 8.0 0.00 0.00 0.00 63 1017.8
20260507042704 63 81 6.0 8.0 0.00 0.00 0.00 63 1017.7
20260507042602 63 79 6.0 8.0 0.00 0.00 0.00 63 1017.8
20260507042504 63 83 6.0 8.0 0.00 0.00 0.00 63 1017.7
20260507042403 63 72 6.0 8.0 0.00 0.00 0.00 63 1017.8
20260507042307 63 79 5.0 8.0 0.00 0.00 0.00 63 1017.7
20260507042204 63 83 6.0 8.0 0.00 0.00 0.00 64 1017.8
20260507042105 63 76 6.0 8.0 0.00 0.00 0.00 64 1017.7
20260507042004 63 72 6.0 8.0 0.00 0.00 0.00 64 1017.7
20260507041904 63 74 5.0 8.0 0.00 0.00 0.00 64 1017.6
20260507041805 63 93 5.0 8.0 0.00 0.00 0.00 64 1017.6
20260507041704 63 78 5.0 8.0 0.00 0.00 0.00 64 1017.5
20260507041602 63 106 5.0 8.0 0.00 0.00 0.00 64 1017.6
20260507041504 63 78 5.0 8.0 0.00 0.00 0.00 64 1017.5
20260507041403 63 79 5.0 8.0 0.00 0.00 0.00 64 1017.6
20260507041306 63 83 5.0 8.0 0.00 0.00 0.00 65 1017.5
20260507041204 62 79 5.0 9.0 0.00 0.00 0.00 65 1017.6
20260507041104 62 76 5.0 9.0 0.00 0.00 0.00 65 1017.6
20260507041004 62 81 5.0 9.0 0.00 0.00 0.00 65 1017.6
20260507040902 62 82 5.0 9.0 0.00 0.00 0.00 65 1017.6
20260507040806 62 82 5.0 9.0 0.00 0.00 0.00 65 1017.6
20260507040704 62 90 5.0 9.0 0.00 0.00 0.00 66 1017.6
20260507040604 62 84 5.0 9.0 0.00 0.00 0.00 66 1017.6
20260507040504 62 83 5.0 9.0 0.00 0.00 0.00 66 1017.6
20260507040403 62 76 5.0 9.0 0.00 0.00 0.00 66 1017.6
20260507040303 62 76 5.0 9.0 0.00 0.00 0.00 66 1017.6
20260507040203 62 83 5.0 9.0 0.00 0.00 0.00 66 1017.6
20260507040005 62 71 5.0 8.0 0.00 0.00 0.00 67 1017.6
20260507035904 62 90 5.0 8.0 0.00 0.00 0.00 67 1017.7
20260507035806 62 94 5.0 8.0 0.00 0.00 0.00 67 1017.6
20260507035703 62 80 5.0 8.0 0.00 0.00 0.00 67 1017.7
20260507035605 62 93 5.0 8.0 0.00 0.00 0.00 67 1017.7
20260507035504 62 78 5.0 8.0 0.00 0.00 0.00 67 1017.7
20260507035404 62 74 5.0 8.0 0.00 0.00 0.00 67 1017.6
20260507035306 62 80 5.0 8.0 0.00 0.00 0.00 68 1017.6
20260507035203 62 79 5.0 8.0 0.00 0.00 0.00 68 1017.5
20260507035101 62 83 5.0 8.0 0.00 0.00 0.00 68 1017.5
20260507035002 62 82 5.0 8.0 0.00 0.00 0.00 68 1017.6
20260507034902 62 74 5.0 8.0 0.00 0.00 0.00 68 1017.5
20260507034806 62 72 4.0 8.0 0.00 0.00 0.00 69 1017.5
20260507034704 62 74 4.0 8.0 0.00 0.00 0.00 69 1017.5
20260507034605 62 76 4.0 8.0 0.00 0.00 0.00 69 1017.4
20260507034502 62 77 4.0 7.0 0.00 0.00 0.00 69 1017.5
20260507034403 62 82 4.0 7.0 0.00 0.00 0.00 69 1017.5
20260507034304 62 78 4.0 7.0 0.00 0.00 0.00 69 1017.4
20260507034204 62 81 4.0 7.0 0.00 0.00 0.00 69 1017.4
20260507034109 62 81 4.0 7.0 0.00 0.00 0.00 69 1017.4
20260507034003 62 75 4.0 7.0 0.00 0.00 0.00 69 1017.4
20260507033906 62 81 3.0 7.0 0.00 0.00 0.00 69 1017.4
20260507033807 62 77 3.0 7.0 0.00 0.00 0.00 70 1017.3
20260507033703 62 80 3.0 7.0 0.00 0.00 0.00 70 1017.3
20260507033604 62 74 3.0 5.0 0.00 0.00 0.00 70 1017.4
20260507033504 62 80 3.0 5.0 0.00 0.00 0.00 70 1017.3
20260507033403 62 79 3.0 5.0 0.00 0.00 0.00 70 1017.4
20260507033305 62 81 3.0 5.0 0.00 0.00 0.00 70 1017.4
20260507033204 62 80 3.0 5.0 0.00 0.00 0.00 70 1017.4
20260507033107 62 80 3.0 5.0 0.00 0.00 0.00 70 1017.4
20260507032903 62 82 3.0 5.0 0.00 0.00 0.00 70 1017.3
20260507032805 62 85 3.0 5.0 0.00 0.00 0.00 69 1017.3
20260507032704 62 77 2.0 5.0 0.00 0.00 0.00 69 1017.3
20260507032603 62 83 2.0 5.0 0.00 0.00 0.00 69 1017.2
20260507032502 62 79 2.0 5.0 0.00 0.00 0.00 69 1017.2
20260507032403 62 76 2.0 5.0 0.00 0.00 0.00 69 1017.2
20260507032305 62 79 2.0 4.0 0.00 0.00 0.00 69 1017.2
20260507032204 62 81 2.0 4.0 0.00 0.00 0.00 69 1017.1
20260507032104 62 79 2.0 4.0 0.00 0.00 0.00 69 1017.2
20260507032004 62 76 2.0 4.0 0.00 0.00 0.00 69 1017.1
20260507031904 62 76 2.0 4.0 0.00 0.00 0.00 69 1017.1
20260507031806 62 76 2.0 4.0 0.00 0.00 0.00 69 1017.1
20260507031702 62 75 2.0 4.0 0.00 0.00 0.00 69 1017.1
20260507031604 62 75 2.0 4.0 0.00 0.00 0.00 69 1017.1
20260507031502 62 75 2.0 4.0 0.00 0.00 0.00 69 1017.1
20260507031404 62 75 2.0 4.0 0.00 0.00 0.00 69 1017.1
20260507031304 62 76 2.0 4.0 0.00 0.00 0.00 69 1017.1
20260507031205 62 77 2.0 4.0 0.00 0.00 0.00 69 1017.1
20260507031118 62 79 1.0 4.0 0.00 0.00 0.00 69 1017.0
20260507031003 61 78 1.0 4.0 0.00 0.00 0.00 69 1017.1
20260507030904 61 76 2.0 4.0 0.00 0.00 0.00 69 1017.0
20260507030804 61 75 2.0 5.0 0.00 0.00 0.00 69 1017.0
20260507030703 61 75 2.0 5.0 0.00 0.00 0.00 69 1016.9
20260507030602 61 72 2.0 5.0 0.00 0.00 0.00 69 1016.9
20260507030504 61 74 2.0 5.0 0.00 0.00 0.00 69 1016.9
20260507030404 61 74 3.0 5.0 0.00 0.00 0.00 69 1016.9
20260507030304 61 74 3.0 5.0 0.00 0.00 0.00 69 1016.8
20260507030203 61 89 3.0 5.0 0.00 0.00 0.00 69 1016.9
20260507030106 61 115 3.0 5.0 0.00 0.00 0.00 69 1016.8
20260507030005 61 114 3.0 5.0 0.00 0.00 0.00 68 1016.8
20260507025903 61 79 3.0 5.0 0.00 0.00 0.00 68 1016.8
20260507025805 61 79 3.0 5.0 0.00 0.00 0.00 69 1016.8
20260507025704 61 79 3.0 5.0 0.00 0.00 0.00 69 1016.8
20260507025603 61 75 3.0 4.0 0.00 0.00 0.00 69 1016.7
20260507025503 61 77 3.0 4.0 0.00 0.00 0.00 70 1016.7
20260507025402 62 73 3.0 4.0 0.00 0.00 0.00 70 1016.7
20260507025306 62 79 3.0 4.0 0.00 0.00 0.00 70 1016.7
20260507025205 62 80 2.0 4.0 0.00 0.00 0.00 71 1016.6
20260507025103 62 80 2.0 4.0 0.00 0.00 0.00 71 1016.6
20260507025003 62 79 2.0 4.0 0.00 0.00 0.00 71 1016.5
20260507024903 62 77 2.0 4.0 0.00 0.00 0.00 71 1016.5
20260507024807 62 78 2.0 4.0 0.00 0.00 0.00 71 1016.5
20260507024703 62 80 2.0 4.0 0.00 0.00 0.00 71 1016.5
20260507024604 62 79 2.0 4.0 0.00 0.00 0.00 71 1016.5
20260507024504 62 79 2.0 4.0 0.00 0.00 0.00 71 1016.5
20260507024404 62 81 2.0 4.0 0.00 0.00 0.00 71 1016.5
20260507024303 62 83 2.0 4.0 0.00 0.00 0.00 70 1016.5
20260507024205 62 83 2.0 4.0 0.00 0.00 0.00 70 1016.5
20260507024102 62 107 2.0 4.0 0.00 0.00 0.00 70 1016.5
20260507024004 62 107 2.0 4.0 0.00 0.00 0.00 70 1016.4
20260507023903 62 107 2.0 5.0 0.00 0.00 0.00 70 1016.4
20260507023805 62 107 3.0 5.0 0.00 0.00 0.00 70 1016.3
20260507023704 62 128 3.0 5.0 0.00 0.00 0.00 69 1016.4
20260507023604 62 132 3.0 5.0 0.00 0.00 0.00 69 1016.3
20260507023503 62 72 3.0 5.0 0.00 0.00 0.00 68 1016.3
20260507023401 62 72 3.0 5.0 0.00 0.00 0.00 67 1016.2
20260507023304 62 72 3.0 5.0 0.00 0.00 0.00 66 1016.4
20260507023203 61 74 3.0 5.0 0.00 0.00 0.00 66 1016.4
20260507023103 61 77 3.0 5.0 0.00 0.00 0.00 65 1016.5
20260507023004 61 77 3.0 5.0 0.00 0.00 0.00 63 1016.5
20260507022904 61 77 3.0 5.0 0.00 0.00 0.00 62 1016.5
20260507022806 61 74 3.0 5.0 0.00 0.00 0.00 61 1016.5
20260507022703 61 74 3.0 4.0 0.00 0.00 0.00 61 1016.5
20260507022604 61 74 2.0 4.0 0.00 0.00 0.00 61 1016.5
20260507022503 61 70 2.0 4.0 0.00 0.00 0.00 60 1016.5
20260507022402 61 70 2.0 4.0 0.00 0.00 0.00 61 1016.4
20260507022306 61 70 2.0 4.0 0.00 0.00 0.00 61 1016.4
20260507022203 61 70 2.0 4.0 0.00 0.00 0.00 60 1016.4
20260507022103 61 70 2.0 4.0 0.00 0.00 0.00 60 1016.3
20260507022005 61 69 2.0 4.0 0.00 0.00 0.00 60 1016.3
20260507021902 61 66 2.0 3.0 0.00 0.00 0.00 59 1016.3
20260507021806 61 66 1.0 3.0 0.00 0.00 0.00 58 1016.2
20260507021704 61 66 1.0 3.0 0.00 0.00 0.00 58 1016.1
20260507021604 61 66 1.0 3.0 0.00 0.00 0.00 56 1016.2
20260507021508 61 66 1.0 3.0 0.00 0.00 0.00 56 1016.2
20260507021404 62 66 2.0 3.0 0.00 0.00 0.00 56 1016.1
20260507021303 62 66 2.0 4.0 0.00 0.00 0.00 56 1016.1
20260507021204 62 66 2.0 8.0 0.00 0.00 0.00 56 1016.1
20260507021104 62 66 3.0 8.0 0.00 0.00 0.00 56 1016.0
20260507021006 62 66 3.0 8.0 0.00 0.00 0.00 56 1016.0
20260507020903 62 66 3.0 8.0 0.00 0.00 0.00 56 1016.1
20260507020806 62 70 3.0 8.0 0.00 0.00 0.00 55 1016.0
20260507020703 62 70 4.0 8.0 0.00 0.00 0.00 53 1016.0
20260507020604 61 70 5.0 9.0 0.00 0.00 0.00 53 1015.9
20260507020504 61 70 5.0 10.0 0.00 0.00 0.00 52 1015.9
20260507020404 61 77 6.0 11.0 0.00 0.00 0.00 52 1016.0
20260507020303 61 65 6.0 11.0 0.00 0.00 0.00 51 1015.9
20260507020203 61 72 7.0 11.0 0.00 0.00 0.00 51 1015.9
20260507020005 61 73 7.0 11.0 0.00 0.00 0.00 52 1015.9
20260507015904 61 85 8.0 11.0 0.00 0.00 0.00 52 1015.8
20260507015805 61 76 8.0 11.0 0.00 0.00 0.00 53 1015.9
20260507015704 61 72 9.0 11.0 0.00 0.00 0.00 53 1015.8
20260507015603 61 81 9.0 11.0 0.00 0.00 0.00 53 1015.9
20260507015505 61 76 9.0 11.0 0.00 0.00 0.00 54 1015.9
20260507015404 61 75 9.0 11.0 0.00 0.00 0.00 54 1015.9
20260507015306 61 74 9.0 12.0 0.00 0.00 0.00 55 1015.9
20260507015202 60 69 9.0 12.0 0.00 0.00 0.00 55 1015.9
20260507015102 60 88 9.0 12.0 0.00 0.00 0.00 56 1016.0
20260507015003 60 74 9.0 12.0 0.00 0.00 0.00 56 1016.0
20260507014904 60 80 9.0 12.0 0.00 0.00 0.00 56 1016.0
20260507014806 60 69 9.0 12.0 0.00 0.00 0.00 57 1016.1
20260507014704 60 84 9.0 12.0 0.00 0.00 0.00 57 1016.0
20260507014603 60 86 9.0 12.0 0.00 0.00 0.00 57 1016.1
20260507014504 60 74 9.0 12.0 0.00 0.00 0.00 57 1016.0
20260507014403 60 76 9.0 12.0 0.00 0.00 0.00 58 1016.0
20260507014304 61 75 9.0 12.0 0.00 0.00 0.00 58 1016.1
20260507014204 61 75 9.0 11.0 0.00 0.00 0.00 58 1016.0
20260507014104 61 79 9.0 11.0 0.00 0.00 0.00 59 1016.0
20260507014004 61 80 8.0 11.0 0.00 0.00 0.00 60 1015.9
20260507013904 61 83 8.0 11.0 0.00 0.00 0.00 60 1016.0
20260507013805 61 75 7.0 11.0 0.00 0.00 0.00 61 1016.1
20260507013703 61 81 7.0 11.0 0.00 0.00 0.00 61 1016.0
20260507013602 61 74 6.0 11.0 0.00 0.00 0.00 61 1016.0
20260507013503 61 79 6.0 11.0 0.00 0.00 0.00 63 1016.1
20260507013402 61 76 5.0 10.0 0.00 0.00 0.00 63 1016.1
20260507013304 61 79 4.0 10.0 0.00 0.00 0.00 64 1016.1
20260507013204 61 75 4.0 10.0 0.00 0.00 0.00 64 1016.1
20260507013103 61 73 3.0 9.0 0.00 0.00 0.00 65 1016.1
20260507013008 61 78 3.0 8.0 0.00 0.00 0.00 66 1016.1
20260507012904 61 83 3.0 5.0 0.00 0.00 0.00 66 1016.2
20260507012807 61 74 3.0 5.0 0.00 0.00 0.00 66 1016.2
20260507012702 61 83 3.0 5.0 0.00 0.00 0.00 66 1016.2
20260507012603 61 76 3.0 5.0 0.00 0.00 0.00 66 1016.2
20260507012504 61 78 2.0 4.0 0.00 0.00 0.00 66 1016.3
20260507012404 61 75 2.0 4.0 0.00 0.00 0.00 66 1016.4
20260507012306 61 73 3.0 4.0 0.00 0.00 0.00 66 1016.3
20260507012206 61 73 3.0 4.0 0.00 0.00 0.00 65 1016.3
20260507012103 61 73 3.0 5.0 0.00 0.00 0.00 65 1016.3
20260507012002 61 72 3.0 5.0 0.00 0.00 0.00 65 1016.3
20260507011902 61 70 3.0 5.0 0.00 0.00 0.00 65 1016.4
20260507011806 61 69 3.0 6.0 0.00 0.00 0.00 65 1016.4
20260507011702 61 69 3.0 6.0 0.00 0.00 0.00 64 1016.4
20260507011603 61 69 4.0 7.0 0.00 0.00 0.00 63 1016.4
20260507011504 61 69 4.0 7.0 0.00 0.00 0.00 63 1016.4
20260507011402 61 70 4.0 7.0 0.00 0.00 0.00 63 1016.3
20260507011303 61 76 5.0 8.0 0.00 0.00 0.00 62 1016.4
20260507011204 61 71 5.0 9.0 0.00 0.00 0.00 62 1016.4
20260507011102 61 68 6.0 10.0 0.00 0.00 0.00 62 1016.4
20260507011002 61 78 6.0 10.0 0.00 0.00 0.00 61 1016.5
20260507010902 61 79 7.0 10.0 0.00 0.00 0.00 61 1016.4
20260507010805 61 74 7.0 10.0 0.00 0.00 0.00 61 1016.4
20260507010704 61 79 7.0 10.0 0.00 0.00 0.00 61 1016.4
20260507010602 61 70 7.0 10.0 0.00 0.00 0.00 61 1016.4
20260507010502 61 72 7.0 10.0 0.00 0.00 0.00 61 1016.3
20260507010402 61 83 7.0 10.0 0.00 0.00 0.00 61 1016.3
20260507010304 61 79 6.0 10.0 0.00 0.00 0.00 61 1016.2
20260507010203 61 76 6.0 10.0 0.00 0.00 0.00 61 1016.1
20260507010003 61 87 5.0 9.0 0.00 0.00 0.00 62 1016.1
20260507005903 61 81 5.0 9.0 0.00 0.00 0.00 62 1016.1
20260507005804 61 78 4.0 8.0 0.00 0.00 0.00 62 1016.1
20260507005703 61 79 4.0 8.0 0.00 0.00 0.00 62 1016.3
20260507005604 61 79 4.0 7.0 0.00 0.00 0.00 63 1016.2
20260507005503 61 74 4.0 7.0 0.00 0.00 0.00 63 1016.3
20260507005405 61 76 4.0 5.0 0.00 0.00 0.00 63 1016.3
20260507005305 61 83 4.0 5.0 0.00 0.00 0.00 63 1016.3
20260507005202 61 79 4.0 5.0 0.00 0.00 0.00 63 1016.4
20260507005103 61 80 4.0 5.0 0.00 0.00 0.00 63 1016.3
20260507005004 61 71 4.0 5.0 0.00 0.00 0.00 63 1016.4
20260507004902 61 76 4.0 5.0 0.00 0.00 0.00 63 1016.3
20260507004702 61 74 4.0 5.0 0.00 0.00 0.00 63 1016.3
20260507004604 61 69 3.0 5.0 0.00 0.00 0.00 64 1016.4
20260507004505 61 73 3.0 5.0 0.00 0.00 0.00 64 1016.3
20260507004403 61 62 3.0 5.0 0.00 0.00 0.00 64 1016.3
20260507004302 61 82 3.0 5.0 0.00 0.00 0.00 64 1016.3
20260507004201 61 77 2.0 5.0 0.00 0.00 0.00 65 1016.3
20260507004104 61 73 2.0 5.0 0.00 0.00 0.00 65 1016.3
20260507004002 61 76 2.0 5.0 0.00 0.00 0.00 66 1016.2
20260507003909 61 75 2.0 5.0 0.00 0.00 0.00 66 1016.3
20260507003805 61 81 2.0 5.0 0.00 0.00 0.00 66 1016.2
20260507003702 61 66 2.0 4.0 0.00 0.00 0.00 67 1016.2
20260507003606 61 65 2.0 4.0 0.00 0.00 0.00 67 1016.2
20260507003502 61 66 2.0 4.0 0.00 0.00 0.00 67 1016.2
20260507003406 61 69 2.0 4.0 0.00 0.00 0.00 67 1016.2
20260507003302 61 70 2.0 4.0 0.00 0.00 0.00 67 1016.2
20260507003204 61 72 2.0 4.0 0.00 0.00 0.00 67 1016.2
20260507003101 61 72 2.0 4.0 0.00 0.00 0.00 66 1016.2
20260507003006 61 72 2.0 4.0 0.00 0.00 0.00 66 1016.3
20260507002905 61 73 2.0 4.0 0.00 0.00 0.00 66 1016.2
20260507002805 61 74 2.0 4.0 0.00 0.00 0.00 66 1016.3
20260507002703 61 74 2.0 4.0 0.00 0.00 0.00 66 1016.3
20260507002604 61 74 2.0 4.0 0.00 0.00 0.00 66 1016.3
20260507002504 61 75 2.0 4.0 0.00 0.00 0.00 66 1016.3
20260507002402 61 75 2.0 4.0 0.00 0.00 0.00 66 1016.3
20260507002306 61 76 2.0 4.0 0.00 0.00 0.00 66 1016.3
20260507002202 61 76 2.0 4.0 0.00 0.00 0.00 66 1016.3
20260507002103 61 76 2.0 4.0 0.00 0.00 0.00 66 1016.3
20260507002002 61 76 2.0 4.0 0.00 0.00 0.00 66 1016.3
20260507001903 62 76 2.0 4.0 0.00 0.00 0.00 66 1016.3
20260507001805 62 79 2.0 4.0 0.00 0.00 0.00 67 1016.3
20260507001704 62 76 2.0 4.0 0.00 0.00 0.00 67 1016.3
20260507001604 62 77 1.0 4.0 0.00 0.00 0.00 66 1016.3
20260507001504 62 76 1.0 4.0 0.00 0.00 0.00 67 1016.3
20260507001402 62 76 1.0 4.0 0.00 0.00 0.00 67 1016.3
20260507001302 62 75 1.0 3.0 0.00 0.00 0.00 67 1016.3
20260507001203 62 72 1.0 3.0 0.00 0.00 0.00 67 1016.2
20260507001102 62 72 1.0 3.0 0.00 0.00 0.00 66 1016.2
20260507001003 62 72 1.0 3.0 0.00 0.00 0.00 66 1016.2
20260507000904 62 72 1.0 3.0 0.00 0.00 0.00 66 1016.3
20260507000806 62 72 1.0 3.0 0.00 0.00 0.00 66 1016.3
20260507000704 62 72 1.0 3.0 0.00 0.00 0.00 65 1016.4
20260507000604 62 72 2.0 3.0 0.00 0.00 0.00 65 1016.3
20260507000502 62 72 2.0 4.0 0.00 0.00 0.00 65 1016.4
20260507000402 62 73 2.0 4.0 0.00 0.00 0.00 65 1016.4
20260507000302 62 71 2.0 4.0 0.00 0.00 0.00 65 1016.3
20260507000205 62 71 2.0 4.0 0.00 0.00 0.00 64 1016.4
20260507000002 62 71 2.0 4.0 0.00 0.00 0.00 63 1016.4
20260506235904 62 71 2.0 4.0 0.00 0.00 0.00 63 1016.3
20260506235807 62 71 2.0 4.0 0.00 0.00 0.00 63 1016.3
20260506235702 62 72 2.0 4.0 0.00 0.00 0.00 63 1016.3
20260506235601 62 68 2.0 4.0 0.00 0.00 0.00 63 1016.3
20260506235504 62 66 3.0 4.0 0.00 0.00 0.00 62 1016.3
20260506235402 62 66 3.0 5.0 0.00 0.00 0.00 62 1016.3
20260506235306 62 66 3.0 5.0 0.00 0.00 0.00 62 1016.3
20260506235202 62 66 3.0 5.0 0.00 0.00 0.00 62 1016.3
20260506235102 62 66 3.0 5.0 0.00 0.00 0.00 62 1016.3
20260506235004 62 66 3.0 5.0 0.00 0.00 0.00 62 1016.3
20260506234902 62 66 3.0 5.0 0.00 0.00 0.00 62 1016.4
20260506234804 62 76 4.0 5.0 0.00 0.00 0.00 62 1016.4
20260506234703 62 74 4.0 5.0 0.00 0.00 0.00 62 1016.4
20260506234602 62 73 4.0 6.0 0.00 0.00 0.00 62 1016.4
20260506234504 62 73 4.0 7.0 0.00 0.00 0.00 62 1016.4
20260506234404 62 76 4.0 7.0 0.00 0.00 0.00 61 1016.4
20260506234304 62 72 4.0 7.0 0.00 0.00 0.00 61 1016.4
20260506234202 62 76 4.0 7.0 0.00 0.00 0.00 61 1016.4
20260506234104 62 74 4.0 7.0 0.00 0.00 0.00 61 1016.5
20260506234002 62 70 4.0 7.0 0.00 0.00 0.00 61 1016.5
20260506233901 62 76 5.0 7.0 0.00 0.00 0.00 61 1016.5
20260506233805 62 82 5.0 7.0 0.00 0.00 0.00 61 1016.5
20260506233702 62 81 5.0 7.0 0.00 0.00 0.00 60 1016.5
20260506233603 62 79 5.0 8.0 0.00 0.00 0.00 60 1016.6
20260506233504 62 73 5.0 8.0 0.00 0.00 0.00 60 1016.5
20260506233402 62 72 5.0 8.0 0.00 0.00 0.00 60 1016.6
20260506233303 62 74 5.0 8.0 0.00 0.00 0.00 60 1016.5
20260506233204 62 71 6.0 8.0 0.00 0.00 0.00 59 1016.6
20260506233103 62 71 6.0 8.0 0.00 0.00 0.00 59 1016.5
20260506233002 62 72 6.0 8.0 0.00 0.00 0.00 59 1016.6
20260506232902 62 75 6.0 8.0 0.00 0.00 0.00 59 1016.6
20260506232804 62 71 6.0 8.0 0.00 0.00 0.00 58 1016.6
20260506232702 62 74 6.0 8.0 0.00 0.00 0.00 58 1016.6
20260506232602 62 74 6.0 8.0 0.00 0.00 0.00 58 1016.6
20260506232506 62 72 6.0 8.0 0.00 0.00 0.00 58 1016.6
20260506232402 62 81 6.0 8.0 0.00 0.00 0.00 58 1016.6
20260506232306 62 68 5.0 8.0 0.00 0.00 0.00 58 1016.7
20260506232204 62 67 5.0 8.0 0.00 0.00 0.00 58 1016.7
20260506232102 62 71 5.0 8.0 0.00 0.00 0.00 58 1016.7
20260506232004 62 72 5.0 8.0 0.00 0.00 0.00 59 1016.7
20260506231902 62 76 4.0 8.0 0.00 0.00 0.00 59 1016.7
20260506231805 62 74 4.0 8.0 0.00 0.00 0.00 59 1016.7
20260506231704 62 84 3.0 8.0 0.00 0.00 0.00 59 1016.7
20260506231602 62 72 3.0 6.0 0.00 0.00 0.00 59 1016.7
20260506231503 62 74 3.0 6.0 0.00 0.00 0.00 60 1016.7
20260506231404 62 70 3.0 7.0 0.00 0.00 0.00 61 1016.8
20260506231303 62 70 4.0 8.0 0.00 0.00 0.00 61 1016.8
20260506231202 62 72 4.0 8.0 0.00 0.00 0.00 61 1016.8
20260506231103 62 76 4.0 8.0 0.00 0.00 0.00 61 1016.8
20260506231004 62 66 4.0 8.0 0.00 0.00 0.00 61 1016.8
20260506230905 62 64 5.0 8.0 0.00 0.00 0.00 61 1016.8
20260506230804 62 68 5.0 8.0 0.00 0.00 0.00 61 1016.9
20260506230702 62 72 5.0 8.0 0.00 0.00 0.00 61 1016.9
20260506230604 62 71 5.0 8.0 0.00 0.00 0.00 61 1016.9
20260506230502 62 73 5.0 8.0 0.00 0.00 0.00 61 1016.9
20260506230402 62 72 5.0 8.0 0.00 0.00 0.00 62 1016.9
20260506230302 62 72 4.0 8.0 0.00 0.00 0.00 63 1016.9
20260506230203 62 89 4.0 7.0 0.00 0.00 0.00 63 1017.0
20260506230105 62 76 4.0 7.0 0.00 0.00 0.00 64 1017.0
20260506230003 62 76 3.0 7.0 0.00 0.00 0.00 64 1017.0
20260506225902 62 70 3.0 7.0 0.00 0.00 0.00 65 1017.0
20260506225805 62 75 3.0 7.0 0.00 0.00 0.00 65 1017.0
20260506225702 62 72 3.0 6.0 0.00 0.00 0.00 66 1017.0
20260506225602 62 81 2.0 6.0 0.00 0.00 0.00 67 1017.1
20260506225504 62 55 2.0 4.0 0.00 0.00 0.00 68 1017.0
20260506225403 63 68 2.0 4.0 0.00 0.00 0.00 68 1017.1
20260506225306 63 76 2.0 4.0 0.00 0.00 0.00 68 1017.0
20260506225201 63 78 2.0 4.0 0.00 0.00 0.00 69 1017.1
20260506225102 63 79 3.0 4.0 0.00 0.00 0.00 69 1017.1
20260506225004 63 79 3.0 5.0 0.00 0.00 0.00 69 1017.1
20260506224903 63 79 3.0 5.0 0.00 0.00 0.00 69 1017.1
20260506224805 63 79 3.0 5.0 0.00 0.00 0.00 69 1017.2
20260506224702 63 81 3.0 5.0 0.00 0.00 0.00 69 1017.1
20260506224604 63 79 3.0 5.0 0.00 0.00 0.00 69 1017.1
20260506224504 63 79 3.0 5.0 0.00 0.00 0.00 69 1017.1
20260506224403 63 79 3.0 5.0 0.00 0.00 0.00 69 1017.2
20260506224304 63 70 3.0 5.0 0.00 0.00 0.00 69 1017.2
20260506224204 63 70 3.0 5.0 0.00 0.00 0.00 68 1017.2
20260506224103 63 80 3.0 5.0 0.00 0.00 0.00 68 1017.2
20260506224005 63 75 2.0 5.0 0.00 0.00 0.00 68 1017.2
20260506223901 63 81 2.0 5.0 0.00 0.00 0.00 67 1017.3
20260506223800 63 77 2.0 5.0 0.00 0.00 0.00 67 1017.3
20260506223701 63 79 2.0 5.0 0.00 0.00 0.00 67 1017.4
20260506223600 63 78 2.0 5.0 0.00 0.00 0.00 67 1017.2
20260506223502 63 74 2.0 4.0 0.00 0.00 0.00 66 1017.2
20260506223400 63 80 2.0 4.0 0.00 0.00 0.00 66 1017.3
20260506223302 63 79 2.0 4.0 0.00 0.00 0.00 66 1017.3
20260506223200 63 79 2.0 4.0 0.00 0.00 0.00 65 1017.3
20260506223102 63 79 2.0 4.0 0.00 0.00 0.00 65 1017.4
20260506222959 63 79 2.0 5.0 0.00 0.00 0.00 65 1017.4
20260506222901 63 78 2.0 5.0 0.00 0.00 0.00 65 1017.2
20260506222800 63 78 2.0 5.0 0.00 0.00 0.00 64 1017.3
20260506222700 63 75 2.0 5.0 0.00 0.00 0.00 64 1017.3
20260506222600 63 75 2.0 5.0 0.00 0.00 0.00 64 1017.3
20260506222501 63 76 2.0 5.0 0.00 0.00 0.00 63 1017.3
20260506222359 63 74 2.0 5.0 0.00 0.00 0.00 62 1017.3
20260506222306 63 72 1.0 5.0 0.00 0.00 0.00 62 1017.3
20260506222200 63 76 1.0 5.0 0.00 0.00 0.00 61 1017.3
20260506222102 63 76 1.0 5.0 0.00 0.00 0.00 61 1017.2
20260506221956 63 81 1.0 4.0 0.00 0.00 0.00 60 1017.2
20260506221858 63 80 1.0 3.0 0.00 0.00 0.00 60 1017.3
20260506221756 63 81 1.0 2.0 0.00 0.00 0.00 60 1017.3
20260506221658 63 80 1.0 2.0 0.00 0.00 0.00 59 1017.3
20260506221558 63 80 1.0 3.0 0.00 0.00 0.00 59 1017.3
20260506221457 63 80 1.0 3.0 0.00 0.00 0.00 59 1017.3
20260506221357 63 80 1.0 3.0 0.00 0.00 0.00 58 1017.3
20260506221300 63 80 1.0 3.0 0.00 0.00 0.00 58 1017.3
20260506221156 63 80 2.0 4.0 0.00 0.00 0.00 58 1017.3
20260506221058 63 80 2.0 5.0 0.00 0.00 0.00 58 1017.2
20260506220957 63 80 2.0 5.0 0.00 0.00 0.00 58 1017.3
20260506220857 63 80 2.0 5.0 0.00 0.00 0.00 58 1017.3
20260506220800 63 80 2.0 5.0 0.00 0.00 0.00 58 1017.2
20260506220656 63 80 2.0 5.0 0.00 0.00 0.00 58 1017.3
20260506220557 63 79 3.0 5.0 0.00 0.00 0.00 58 1017.3
20260506220455 63 79 3.0 5.0 0.00 0.00 0.00 58 1017.2
20260506220357 63 79 3.0 5.0 0.00 0.00 0.00 58 1017.2
20260506220300 63 80 3.0 5.0 0.00 0.00 0.00 58 1017.2
20260506220157 63 80 3.0 5.0 0.00 0.00 0.00 58 1017.2
20260506220054 63 82 3.0 5.0 0.00 0.00 0.00 58 1017.2
20260506215953 63 79 3.0 5.0 0.00 0.00 0.00 58 1017.2
20260506215852 63 79 4.0 5.0 0.00 0.00 0.00 58 1017.2
20260506215755 63 81 4.0 5.0 0.00 0.00 0.00 58 1017.1
20260506215652 63 78 4.0 5.0 0.00 0.00 0.00 58 1017.1
20260506215552 63 79 3.0 5.0 0.00 0.00 0.00 58 1017.1
20260506215452 63 72 3.0 5.0 0.00 0.00 0.00 58 1017.1
20260506215354 63 88 4.0 5.0 0.00 0.00 0.00 58 1017.2
20260506215256 63 75 3.0 7.0 0.00 0.00 0.00 58 1017.2
20260506215208 63 76 3.0 7.0 0.00 0.00 0.00 58 1017.2
20260506215053 64 76 3.0 7.0 0.00 0.00 0.00 58 1017.2
20260506214951 64 76 3.0 7.0 0.00 0.00 0.00 58 1017.2
20260506214852 64 79 3.0 7.0 0.00 0.00 0.00 58 1017.2
20260506214752 64 72 3.0 7.0 0.00 0.00 0.00 58 1017.2
20260506214652 64 74 3.0 7.0 0.00 0.00 0.00 58 1017.2
20260506214552 64 79 3.0 7.0 0.00 0.00 0.00 58 1017.2
20260506214446 64 76 3.0 7.0 0.00 0.00 0.00 58 1017.2
20260506214345 64 77 3.0 7.0 0.00 0.00 0.00 58 1017.2
20260506214248 64 70 3.0 5.0 0.00 0.00 0.00 58 1017.2
20260506214143 64 79 3.0 5.0 0.00 0.00 0.00 58 1017.3
20260506213940 64 76 2.0 5.0 0.00 0.00 0.00 58 1017.2
20260506213840 64 74 2.0 5.0 0.00 0.00 0.00 58 1017.2
20260506213744 64 75 3.0 5.0 0.00 0.00 0.00 58 1017.2
20260506213638 64 74 3.0 5.0 0.00 0.00 0.00 58 1017.3
20260506213537 64 72 2.0 5.0 0.00 0.00 0.00 58 1017.2
20260506213432 64 76 2.0 4.0 0.00 0.00 0.00 58 1017.2
20260506213331 64 79 2.0 4.0 0.00 0.00 0.00 58 1017.3
20260506213232 64 84 2.0 4.0 0.00 0.00 0.00 59 1017.2
20260506213131 64 79 2.0 5.0 0.00 0.00 0.00 59 1017.3
20260506213032 64 76 2.0 5.0 0.00 0.00 0.00 59 1017.3
20260506212936 64 78 2.0 5.0 0.00 0.00 0.00 59 1017.3
20260506212831 64 76 2.0 5.0 0.00 0.00 0.00 59 1017.3
20260506212732 64 76 2.0 5.0 0.00 0.00 0.00 59 1017.3
20260506212631 64 76 2.0 5.0 0.00 0.00 0.00 59 1017.4
20260506212532 64 76 2.0 5.0 0.00 0.00 0.00 59 1017.3
20260506212433 64 75 2.0 5.0 0.00 0.00 0.00 59 1017.4
20260506212331 64 77 2.0 5.0 0.00 0.00 0.00 59 1017.4
20260506212237 64 74 2.0 5.0 0.00 0.00 0.00 59 1017.4
20260506212131 64 79 2.0 4.0 0.00 0.00 0.00 59 1017.4
20260506212031 64 77 2.0 4.0 0.00 0.00 0.00 60 1017.4
20260506211934 64 79 2.0 5.0 0.00 0.00 0.00 60 1017.4
20260506211830 64 80 3.0 5.0 0.00 0.00 0.00 60 1017.4
20260506211736 64 81 3.0 6.0 0.00 0.00 0.00 60 1017.4
20260506211632 64 74 3.0 7.0 0.00 0.00 0.00 60 1017.4
20260506211530 64 82 3.0 7.0 0.00 0.00 0.00 60 1017.4
20260506211434 64 81 3.0 7.0 0.00 0.00 0.00 60 1017.4
20260506211332 64 84 4.0 7.0 0.00 0.00 0.00 60 1017.4
20260506211231 64 99 4.0 7.0 0.00 0.00 0.00 60 1017.4
20260506211132 64 83 4.0 7.0 0.00 0.00 0.00 61 1017.4
20260506211031 64 85 4.0 7.0 0.00 0.00 0.00 61 1017.4
20260506210936 64 79 4.0 7.0 0.00 0.00 0.00 61 1017.3
20260506210831 64 79 4.0 7.0 0.00 0.00 0.00 61 1017.3
20260506210732 64 83 4.0 7.0 0.00 0.00 0.00 61 1017.4
20260506210632 64 81 3.0 5.0 0.00 0.00 0.00 61 1017.4
20260506210531 64 81 3.0 5.0 0.00 0.00 0.00 61 1017.4
20260506210433 64 79 3.0 5.0 0.00 0.00 0.00 61 1017.3
20260506210332 64 80 3.0 5.0 0.00 0.00 0.00 61 1017.4
20260506210230 64 75 3.0 5.0 0.00 0.00 0.00 61 1017.3
20260506210132 64 83 3.0 5.0 0.00 0.00 0.00 61 1017.3
20260506210030 64 71 3.0 5.0 0.00 0.00 0.00 61 1017.4
20260506205933 64 78 3.0 5.0 0.00 0.00 0.00 61 1017.3
20260506205831 64 76 3.0 5.0 0.00 0.00 0.00 61 1017.4
20260506205730 64 76 3.0 5.0 0.00 0.00 0.00 61 1017.4
20260506205630 64 73 3.0 5.0 0.00 0.00 0.00 61 1017.4
20260506205531 64 67 3.0 5.0 0.00 0.00 0.00 61 1017.4
20260506205431 64 76 3.0 5.0 0.00 0.00 0.00 61 1017.4
20260506205330 64 77 3.0 5.0 0.00 0.00 0.00 61 1017.4
20260506205232 64 81 3.0 5.0 0.00 0.00 0.00 60 1017.4
20260506205131 64 76 3.0 5.0 0.00 0.00 0.00 60 1017.4
20260506205032 64 77 3.0 5.0 0.00 0.00 0.00 60 1017.4
20260506204934 64 75 3.0 5.0 0.00 0.00 0.00 60 1017.4
20260506204832 64 78 3.0 5.0 0.00 0.00 0.00 60 1017.4
20260506204733 64 79 3.0 5.0 0.00 0.00 0.00 60 1017.4
20260506204630 64 74 3.0 5.0 0.00 0.00 0.00 60 1017.4
20260506204531 64 72 3.0 5.0 0.00 0.00 0.00 60 1017.4
20260506204433 64 72 3.0 5.0 0.00 0.00 0.00 60 1017.4
20260506204332 64 78 3.0 5.0 0.00 0.00 0.00 60 1017.4
20260506204231 64 80 3.0 5.0 0.00 0.00 0.00 59 1017.4
20260506204130 64 78 3.0 5.0 0.00 0.00 0.00 59 1017.4
20260506204032 64 75 3.0 5.0 0.00 0.00 0.00 59 1017.4
20260506203932 64 79 3.0 5.0 0.00 0.00 0.00 59 1017.3
20260506203834 64 80 3.0 5.0 0.00 0.00 0.00 59 1017.4
20260506203731 64 84 3.0 5.0 0.00 0.00 0.00 59 1017.4
20260506203630 64 65 3.0 7.0 0.00 0.00 0.00 59 1017.4
20260506203532 64 78 3.0 8.0 0.00 0.00 0.00 59 1017.4
20260506203432 64 78 3.0 8.0 0.00 0.00 0.00 59 1017.4
20260506203331 64 75 4.0 8.0 0.00 0.00 0.00 59 1017.4
20260506203233 64 72 4.0 8.0 0.00 0.00 0.00 59 1017.4
20260506203130 64 66 4.0 9.0 0.00 0.00 0.00 59 1017.4
20260506203030 64 81 5.0 9.0 0.00 0.00 0.00 59 1017.4
20260506202932 64 79 5.0 9.0 0.00 0.00 0.00 59 1017.4
20260506202833 64 79 5.0 9.0 0.00 0.00 0.00 59 1017.3
20260506202731 64 72 5.0 9.0 0.00 0.00 0.00 59 1017.2
20260506202631 64 79 5.0 9.0 0.00 0.00 0.00 59 1017.3
20260506202530 64 79 5.0 9.0 0.00 0.00 0.00 58 1017.3
20260506202432 64 84 5.0 9.0 0.00 0.00 0.00 58 1017.3
20260506202330 64 63 5.0 9.0 0.00 0.00 0.00 58 1017.3
20260506202232 64 78 5.0 9.0 0.00 0.00 0.00 57 1017.3
20260506202130 64 83 5.0 8.0 0.00 0.00 0.00 57 1017.4
20260506202031 64 81 5.0 9.0 0.00 0.00 0.00 57 1017.3
20260506201948 64 101 5.0 9.0 0.00 0.00 0.00 56 1017.4
20260506201831 64 94 5.0 9.0 0.00 0.00 0.00 56 1017.3
20260506201730 64 78 5.0 9.0 0.00 0.00 0.00 56 1017.3
20260506201630 64 89 5.0 9.0 0.00 0.00 0.00 56 1017.4
20260506201530 64 71 4.0 9.0 0.00 0.00 0.00 55 1017.3
20260506201432 64 85 4.0 9.0 0.00 0.00 0.00 55 1017.3
20260506201331 64 92 4.0 9.0 0.00 0.00 0.00 55 1017.3
20260506201230 64 85 4.0 9.0 0.00 0.00 0.00 55 1017.3
20260506201131 64 92 4.0 9.0 0.00 0.00 0.00 54 1017.3
20260506201030 64 83 4.0 8.0 0.00 0.00 0.00 54 1017.2
20260506200930 64 81 3.0 8.0 0.00 0.00 0.00 55 1017.3
20260506200824 64 76 3.0 7.0 0.00 0.00 0.00 55 1017.3
20260506200723 64 72 3.0 7.0 0.00 0.00 0.00 55 1017.2
20260506200623 64 72 4.0 7.0 0.00 0.00 0.00 55 1017.3
20260506200524 64 76 4.0 7.0 0.00 0.00 0.00 55 1017.3
20260506200424 64 81 3.0 7.0 0.00 0.00 0.00 55 1017.3
20260506200316 64 71 3.0 7.0 0.00 0.00 0.00 55 1017.3
20260506200217 64 82 3.0 7.0 0.00 0.00 0.00 55 1017.3
20260506200116 64 74 3.0 7.0 0.00 0.00 0.00 55 1017.2
20260506200018 64 81 3.0 7.0 0.00 0.00 0.00 55 1017.2
20260506195918 64 62 3.0 7.0 0.00 0.00 0.00 55 1017.2
20260506195814 64 72 3.0 5.0 0.00 0.00 0.00 55 1017.2
20260506195713 64 72 3.0 5.0 0.00 0.00 0.00 54 1017.2
20260506195612 64 77 3.0 5.0 0.00 0.00 0.00 54 1017.2
20260506195514 64 77 3.0 5.0 0.00 0.00 0.00 54 1017.2
20260506195412 64 72 3.0 5.0 0.00 0.00 0.00 54 1017.1
20260506195312 64 75 2.0 5.0 0.00 0.00 0.00 54 1017.1
20260506195213 64 74 2.0 5.0 0.00 0.00 0.00 54 1017.1
20260506195112 64 71 2.0 4.0 0.00 0.00 0.00 54 1017.1
20260506195012 64 72 2.0 4.0 0.00 0.00 0.00 54 1017.1
20260506194912 64 70 2.0 4.0 0.00 0.00 0.00 54 1017.2
20260506194813 64 76 2.0 4.0 0.00 0.00 0.00 54 1017.2
20260506194713 64 85 2.0 4.0 0.00 0.00 0.00 54 1017.1
20260506194616 64 85 2.0 4.0 0.00 0.00 0.00 54 1017.2
20260506194526 64 85 1.0 4.0 0.00 0.00 0.00 54 1017.2
20260506194414 64 82 1.0 4.0 0.00 0.00 0.00 54 1017.2
20260506194313 64 82 1.0 4.0 0.00 0.00 0.00 54 1017.1
20260506194213 64 82 1.0 4.0 0.00 0.00 0.00 54 1017.2
20260506194112 64 81 1.0 4.0 0.00 0.00 0.00 54 1017.1
20260506194014 64 82 1.0 3.0 0.00 0.00 0.00 54 1017.2
20260506193913 64 83 1.0 3.0 0.00 0.00 0.00 54 1017.1
20260506193812 64 87 1.0 4.0 0.00 0.00 0.00 54 1017.1
20260506193714 64 95 1.0 5.0 0.00 0.00 0.00 54 1017.1
20260506193612 64 97 1.0 5.0 0.00 0.00 0.00 53 1017.1
20260506193508 64 97 2.0 5.0 0.00 0.00 0.00 53 1017.1
20260506193408 64 97 2.0 5.0 0.00 0.00 0.00 53 1017.1
20260506193310 64 97 2.0 5.0 0.00 0.00 0.00 52 1017.1
20260506193208 64 76 2.0 5.0 0.00 0.00 0.00 52 1017.0
20260506193109 64 76 2.0 5.0 0.00 0.00 0.00 51 1017.0
20260506193006 64 76 3.0 5.0 0.00 0.00 0.00 51 1017.1
20260506192907 65 76 3.0 5.0 0.00 0.00 0.00 51 1017.1
20260506192804 65 75 2.0 5.0 0.00 0.00 0.00 51 1017.1
20260506192702 65 72 2.0 4.0 0.00 0.00 0.00 51 1017.0
20260506192602 65 76 2.0 4.0 0.00 0.00 0.00 50 1017.0
20260506192501 65 75 2.0 4.0 0.00 0.00 0.00 51 1017.0
20260506192405 65 81 2.0 4.0 0.00 0.00 0.00 50 1017.0
20260506192305 65 68 2.0 4.0 0.00 0.00 0.00 50 1017.1
20260506192202 65 74 2.0 3.0 0.00 0.00 0.00 50 1017.0
20260506192102 65 74 2.0 3.0 0.00 0.00 0.00 50 1017.0
20260506192002 65 74 2.0 3.0 0.00 0.00 0.00 50 1016.9
20260506191902 65 75 2.0 3.0 0.00 0.00 0.00 49 1016.9
20260506191802 65 75 1.0 3.0 0.00 0.00 0.00 49 1017.1
20260506191702 65 75 1.0 3.0 0.00 0.00 0.00 49 1017.0
20260506191603 65 75 1.0 3.0 0.00 0.00 0.00 49 1016.9
20260506191503 65 75 1.0 3.0 0.00 0.00 0.00 49 1016.9
20260506191404 65 75 1.0 3.0 0.00 0.00 0.00 49 1016.9
20260506191303 66 75 1.0 3.0 0.00 0.00 0.00 49 1016.9
20260506191204 66 75 1.0 2.0 0.00 0.00 0.00 49 1016.8
20260506191102 66 75 1.0 3.0 0.00 0.00 0.00 48 1016.9
20260506191002 66 75 1.0 4.0 0.00 0.00 0.00 49 1016.8
20260506190902 66 75 1.0 4.0 0.00 0.00 0.00 49 1016.9
20260506190802 66 75 2.0 4.0 0.00 0.00 0.00 48 1016.8
20260506190702 66 75 2.0 4.0 0.00 0.00 0.00 48 1016.8
20260506190618 66 75 2.0 4.0 0.00 0.00 0.00 48 1016.7
20260506190502 66 75 2.0 4.0 0.00 0.00 0.00 48 1016.8
20260506190402 66 75 2.0 4.0 0.00 0.00 0.00 48 1016.7
20260506190303 66 75 2.0 4.0 0.00 0.00 0.00 48 1016.6
20260506190202 66 75 2.0 4.0 0.00 0.00 0.00 48 1016.6
20260506190104 66 75 2.0 4.0 0.00 0.00 0.00 48 1016.6
20260506190005 66 76 2.0 4.0 0.00 0.00 0.00 48 1016.7
20260506185903 66 75 2.0 4.0 0.00 0.00 0.00 48 1016.6
20260506185805 66 74 2.0 4.0 0.00 0.00 0.00 48 1016.6
20260506185703 66 74 2.0 4.0 0.00 0.00 0.00 48 1016.5
20260506185602 66 76 1.0 4.0 0.00 0.00 0.00 48 1016.6
20260506185502 66 86 1.0 3.0 0.00 0.00 0.00 47 1016.5
20260506185402 66 116 1.0 3.0 0.00 0.00 0.00 47 1016.5
20260506185306 66 116 1.0 3.0 0.00 0.00 0.00 47 1016.5
20260506185204 66 116 1.0 3.0 0.00 0.00 0.00 47 1016.5
20260506185103 66 116 1.0 5.0 0.00 0.00 0.00 47 1016.5
20260506185004 66 116 2.0 5.0 0.00 0.00 0.00 47 1016.5
20260506184903 66 66 2.0 5.0 0.00 0.00 0.00 47 1016.4
20260506184802 66 59 2.0 7.0 0.00 0.00 0.00 47 1016.5
20260506184702 66 58 3.0 7.0 0.00 0.00 0.00 48 1016.4
20260506184603 66 58 3.0 7.0 0.00 0.00 0.00 48 1016.5
20260506184504 66 58 3.0 7.0 0.00 0.00 0.00 48 1016.4
20260506184406 66 58 3.0 7.0 0.00 0.00 0.00 48 1016.4
20260506184302 66 69 4.0 7.0 0.00 0.00 0.00 48 1016.4
20260506184205 66 68 4.0 8.0 0.00 0.00 0.00 47 1016.4
20260506184102 66 93 4.0 8.0 0.00 0.00 0.00 47 1016.4
20260506184003 66 81 4.0 9.0 0.00 0.00 0.00 48 1016.3
20260506183903 66 83 4.0 9.0 0.00 0.00 0.00 48 1016.3
20260506183802 66 83 4.0 9.0 0.00 0.00 0.00 48 1016.3
20260506183704 66 83 4.0 9.0 0.00 0.00 0.00 48 1016.3
20260506183603 66 91 5.0 9.0 0.00 0.00 0.00 48 1016.2
20260506183505 66 93 5.0 9.0 0.00 0.00 0.00 48 1016.3
20260506183404 66 87 5.0 9.0 0.00 0.00 0.00 48 1016.2
20260506183302 66 95 4.0 9.0 0.00 0.00 0.00 48 1016.2
20260506183202 66 86 4.0 9.0 0.00 0.00 0.00 47 1016.1
20260506183102 66 79 4.0 9.0 0.00 0.00 0.00 47 1016.2
20260506183004 66 75 4.0 8.0 0.00 0.00 0.00 47 1016.1
20260506182902 66 95 3.0 8.0 0.00 0.00 0.00 47 1016.0
20260506182803 66 78 3.0 8.0 0.00 0.00 0.00 47 1016.0
20260506182704 66 82 3.0 7.0 0.00 0.00 0.00 47 1016.0
20260506182604 66 90 3.0 7.0 0.00 0.00 0.00 47 1016.0
20260506182502 66 92 3.0 7.0 0.00 0.00 0.00 47 1016.0
20260506182403 66 83 3.0 8.0 0.00 0.00 0.00 47 1016.0
20260506182306 66 87 3.0 8.0 0.00 0.00 0.00 47 1016.0
20260506182202 66 87 3.0 8.0 0.00 0.00 0.00 47 1016.0
20260506182108 66 93 4.0 8.0 0.00 0.00 0.00 47 1015.9
20260506182004 66 85 3.0 8.0 0.00 0.00 0.00 47 1015.9
20260506181902 66 89 3.0 8.0 0.00 0.00 0.00 47 1015.9
20260506181805 66 79 3.0 8.0 0.00 0.00 0.00 47 1015.9
20260506181703 66 100 3.0 8.0 0.00 0.00 0.00 47 1015.9
20260506181607 67 86 3.0 8.0 0.00 0.00 0.00 47 1015.9
20260506181502 67 76 3.0 8.0 0.00 0.00 0.00 47 1015.9
20260506181404 67 85 3.0 7.0 0.00 0.00 0.00 47 1015.9
20260506181302 67 89 3.0 7.0 0.00 0.00 0.00 47 1015.8
20260506181204 67 85 3.0 7.0 0.00 0.00 0.00 47 1015.8
20260506181104 67 81 4.0 8.0 0.00 0.00 0.00 47 1015.8
20260506181004 67 88 4.0 8.0 0.00 0.00 0.00 47 1015.8
20260506180902 67 103 4.0 9.0 0.00 0.00 0.00 47 1015.8
20260506180803 67 82 4.0 9.0 0.00 0.00 0.00 47 1015.8
20260506180704 67 87 4.0 9.0 0.00 0.00 0.00 47 1015.8
20260506180604 67 89 4.0 9.0 0.00 0.00 0.00 47 1015.8
20260506180502 67 89 5.0 9.0 0.00 0.00 0.00 47 1015.8
20260506180402 67 93 5.0 9.0 0.00 0.00 0.00 47 1015.8
20260506180303 67 90 5.0 9.0 0.00 0.00 0.00 47 1015.8
20260506180206 67 83 5.0 9.0 0.00 0.00 0.00 47 1015.8
20260506180103 67 82 5.0 9.0 0.00 0.00 0.00 47 1015.7
20260506180005 67 86 5.0 9.0 0.00 0.00 0.00 47 1015.8
20260506175903 67 91 5.0 8.0 0.00 0.00 0.00 47 1015.7
20260506175802 67 89 4.0 8.0 0.00 0.00 0.00 46 1015.7
20260506175703 67 81 4.0 8.0 0.00 0.00 0.00 46 1015.7
20260506175604 67 89 4.0 8.0 0.00 0.00 0.00 46 1015.7
20260506175502 67 85 4.0 8.0 0.00 0.00 0.00 46 1015.8
20260506175405 67 97 4.0 8.0 0.00 0.00 0.00 46 1015.7
20260506175306 67 91 5.0 8.0 0.00 0.00 0.00 46 1015.7
20260506175203 67 77 5.0 8.0 0.00 0.00 0.00 46 1015.7
20260506175104 67 81 4.0 8.0 0.00 0.00 0.00 46 1015.6
20260506175003 67 76 4.0 8.0 0.00 0.00 0.00 46 1015.7
20260506174902 68 89 4.0 8.0 0.00 0.00 0.00 46 1015.7
20260506174802 68 99 5.0 8.0 0.00 0.00 0.00 46 1015.7
20260506174704 68 93 5.0 8.0 0.00 0.00 0.00 46 1015.7
20260506174605 68 82 5.0 8.0 0.00 0.00 0.00 46 1015.6
20260506174503 68 90 4.0 8.0 0.00 0.00 0.00 46 1015.6
20260506174404 68 74 4.0 8.0 0.00 0.00 0.00 46 1015.7
20260506174304 68 74 4.0 8.0 0.00 0.00 0.00 46 1015.7
20260506174202 68 81 4.0 7.0 0.00 0.00 0.00 46 1015.6
20260506174102 68 79 4.0 7.0 0.00 0.00 0.00 46 1015.6
20260506174004 68 75 4.0 7.0 0.00 0.00 0.00 46 1015.6
20260506173903 68 88 4.0 7.0 0.00 0.00 0.00 46 1015.6
20260506173804 68 91 4.0 7.0 0.00 0.00 0.00 46 1015.6
20260506173704 68 79 4.0 7.0 0.00 0.00 0.00 47 1015.5
20260506173602 68 84 4.0 7.0 0.00 0.00 0.00 47 1015.6
20260506173503 68 90 4.0 7.0 0.00 0.00 0.00 47 1015.6
20260506173402 68 66 4.0 7.0 0.00 0.00 0.00 47 1015.6
20260506173302 68 83 4.0 8.0 0.00 0.00 0.00 47 1015.6
20260506173202 68 91 5.0 8.0 0.00 0.00 0.00 47 1015.6
20260506173103 68 79 5.0 9.0 0.00 0.00 0.00 47 1015.6
20260506173005 68 76 4.0 9.0 0.00 0.00 0.00 47 1015.6
20260506172903 68 79 4.0 9.0 0.00 0.00 0.00 47 1015.6
20260506172802 68 90 5.0 9.0 0.00 0.00 0.00 47 1015.5
20260506172703 68 74 5.0 9.0 0.00 0.00 0.00 47 1015.5
20260506172602 68 86 5.0 9.0 0.00 0.00 0.00 47 1015.6
20260506172502 68 89 5.0 9.0 0.00 0.00 0.00 47 1015.6
20260506172402 69 85 5.0 9.0 0.00 0.00 0.00 46 1015.5
20260506172306 69 76 5.0 9.0 0.00 0.00 0.00 46 1015.6
20260506172204 69 72 4.0 9.0 0.00 0.00 0.00 46 1015.5
20260506172102 69 83 4.0 7.0 0.00 0.00 0.00 46 1015.5
20260506172004 69 85 4.0 7.0 0.00 0.00 0.00 45 1015.6
20260506171902 69 91 4.0 7.0 0.00 0.00 0.00 45 1015.6
20260506171802 69 81 4.0 7.0 0.00 0.00 0.00 44 1015.6
20260506171704 69 79 4.0 7.0 0.00 0.00 0.00 44 1015.5
20260506171604 69 86 3.0 7.0 0.00 0.00 0.00 43 1015.5
20260506171503 69 76 3.0 6.0 0.00 0.00 0.00 43 1015.5
20260506171405 70 79 3.0 6.0 0.00 0.00 0.00 43 1015.5
20260506171302 70 85 3.0 6.0 0.00 0.00 0.00 42 1015.5
20260506171201 70 89 3.0 6.0 0.00 0.00 0.00 42 1015.5
20260506171104 70 130 3.0 6.0 0.00 0.00 0.00 41 1015.5
20260506171002 70 85 2.0 6.0 0.00 0.00 0.00 41 1015.5
20260506170902 70 85 2.0 6.0 0.00 0.00 0.00 41 1015.5
20260506170802 70 88 2.0 6.0 0.00 0.00 0.00 41 1015.5
20260506170702 70 79 2.0 6.0 0.00 0.00 0.00 41 1015.5
20260506170605 71 82 2.0 4.0 0.00 0.00 0.00 40 1015.5
20260506170504 71 102 2.0 4.0 0.00 0.00 0.00 40 1015.5
20260506170404 71 122 2.0 4.0 0.00 0.00 0.00 40 1015.6
20260506170302 71 87 2.0 4.0 0.00 0.00 0.00 40 1015.5
20260506170202 71 99 2.0 4.0 0.00 0.00 0.00 40 1015.5
20260506170104 71 118 2.0 4.0 0.00 0.00 0.00 40 1015.5
20260506170003 71 118 2.0 4.0 0.00 0.00 0.00 41 1015.5
20260506165903 71 114 2.0 4.0 0.00 0.00 0.00 41 1015.5
20260506165804 71 112 2.0 4.0 0.00 0.00 0.00 41 1015.6
20260506165702 71 124 2.0 4.0 0.00 0.00 0.00 41 1015.5
20260506165606 71 115 2.0 4.0 0.00 0.00 0.00 41 1015.6
20260506165503 71 115 2.0 4.0 0.00 0.00 0.00 41 1015.5
20260506165404 71 115 2.0 4.0 0.00 0.00 0.00 42 1015.5
20260506165305 71 103 2.0 4.0 0.00 0.00 0.00 42 1015.6
20260506165202 72 147 2.0 5.0 0.00 0.00 0.00 42 1015.6
20260506165103 72 147 2.0 5.0 0.00 0.00 0.00 42 1015.5
20260506165005 72 147 2.0 5.0 0.00 0.00 0.00 42 1015.6
20260506164903 72 151 2.0 5.0 0.00 0.00 0.00 43 1015.6
20260506164803 72 134 2.0 5.0 0.00 0.00 0.00 44 1015.6
20260506164702 72 134 2.0 5.0 0.00 0.00 0.00 43 1015.6
20260506164605 72 104 2.0 5.0 0.00 0.00 0.00 44 1015.6
20260506164502 72 94 2.0 5.0 0.00 0.00 0.00 44 1015.7
20260506164403 72 145 2.0 5.0 0.00 0.00 0.00 44 1015.7
20260506164302 72 145 2.0 5.0 0.00 0.00 0.00 44 1015.7
20260506164203 72 142 1.0 5.0 0.00 0.00 0.00 46 1015.7
20260506164105 72 140 2.0 4.0 0.00 0.00 0.00 46 1015.7
20260506164005 72 140 2.0 4.0 0.00 0.00 0.00 46 1015.7
20260506163903 72 140 2.0 4.0 0.00 0.00 0.00 45 1015.6
20260506163803 72 141 2.0 4.0 0.00 0.00 0.00 45 1015.6
20260506163703 72 140 2.0 4.0 0.00 0.00 0.00 45 1015.7
20260506163601 71 123 2.0 4.0 0.00 0.00 0.00 46 1015.6
20260506163458 71 206 2.0 5.0 0.00 0.00 0.00 46 1015.7
20260506163358 71 206 3.0 5.0 0.00 0.00 0.00 46 1015.7
20260506163258 71 206 2.0 5.0 0.00 0.00 0.00 46 1015.8
20260506163158 72 206 2.0 5.0 0.00 0.00 0.00 46 1015.7
20260506163054 72 206 2.0 5.0 0.00 0.00 0.00 45 1015.7
20260506162951 72 201 2.0 5.0 0.00 0.00 0.00 46 1015.7
20260506162849 72 174 3.0 5.0 0.00 0.00 0.00 46 1015.7
20260506162749 72 174 3.0 5.0 0.00 0.00 0.00 46 1015.7
20260506162649 72 173 3.0 6.0 0.00 0.00 0.00 46 1015.7
20260506162549 72 174 3.0 6.0 0.00 0.00 0.00 46 1015.7
20260506162447 72 171 3.0 6.0 0.00 0.00 0.00 46 1015.7
20260506162346 72 189 3.0 6.0 0.00 0.00 0.00 47 1015.7
20260506162246 72 128 3.0 6.0 0.00 0.00 0.00 47 1015.7
20260506162146 72 197 3.0 6.0 0.00 0.00 0.00 47 1015.7
20260506162043 72 198 3.0 6.0 0.00 0.00 0.00 47 1015.7
20260506161943 72 193 4.0 7.0 0.00 0.00 0.00 46 1015.8
20260506161842 72 176 4.0 7.0 0.00 0.00 0.00 46 1015.7
20260506161741 72 166 4.0 7.0 0.00 0.00 0.00 47 1015.7
20260506161640 72 195 4.0 7.0 0.00 0.00 0.00 47 1015.8